Time,TemperatureF,DewpointF,PressureIn,WindDirection,WindDirectionDegrees,WindSpeedMPH,WindSpeedGustMPH,Humidity,HourlyPrecipIn,Conditions,Clouds,dailyrainin,SolarRadiationWatts/m^2,SoftwareType,DateUTC
2013-03-06 00:01:00,60.3,41.0,29.94,SE,143,3.0,3.0,49,0.00,,,0.00,0,WeatherHawk,2013-03-06 07:01:00,
2013-03-06 00:02:00,60.3,40.5,29.94,SE,146,4.0,4.0,48,0.00,,,0.00,0,WeatherHawk,2013-03-06 07:02:00,
2013-03-06 00:05:00,60.6,40.8,29.94,South,170,4.0,4.0,48,0.00,,,0.00,0,WeatherHawk,2013-03-06 07:05:00,
2013-03-06 00:08:00,60.6,40.3,29.95,SSW,199,4.0,4.0,47,0.00,,,0.00,0,WeatherHawk,2013-03-06 07:08:00,
2013-03-06 00:11:00,60.4,40.7,29.95,SW,221,6.0,6.0,48,0.00,,,0.00,0,WeatherHawk,2013-03-06 07:11:00,
2013-03-06 00:13:00,59.9,40.7,29.95,SW,229,4.0,4.0,49,0.00,,,0.00,0,WeatherHawk,2013-03-06 07:13:00,
2013-03-06 00:15:00,59.4,41.7,29.95,SW,214,4.0,4.0,52,0.00,,,0.00,0,WeatherHawk,2013-03-06 07:15:00,
2013-03-06 00:18:00,58.8,42.7,29.95,SSW,200,4.0,4.0,55,0.00,,,0.00,0,WeatherHawk,2013-03-06 07:18:00,
2013-03-06 00:19:00,58.6,42.5,29.95,SSW,193,4.0,6.0,55,0.00,,,0.00,0,WeatherHawk,2013-03-06 07:19:00,
2013-03-06 00:21:00,58.5,42.4,29.95,SSW,200,3.0,6.0,55,0.00,,,0.00,0,WeatherHawk,2013-03-06 07:21:00,
2013-03-06 00:22:00,58.6,42.0,29.95,South,188,4.0,6.0,54,0.00,,,0.00,0,WeatherHawk,2013-03-06 07:22:00,
2013-03-06 00:23:00,58.6,41.6,29.95,SSW,195,5.0,6.0,53,0.00,,,0.00,0,WeatherHawk,2013-03-06 07:23:00,
2013-03-06 00:24:00,58.8,41.2,29.95,South,191,5.0,6.0,52,0.00,,,0.00,0,WeatherHawk,2013-03-06 07:24:00,
2013-03-06 00:28:00,58.8,41.7,29.95,SSW,192,5.0,6.0,53,0.00,,,0.00,0,WeatherHawk,2013-03-06 07:28:00,
2013-03-06 00:30:00,59.0,41.9,29.95,South,173,5.0,6.0,53,0.00,,,0.00,0,WeatherHawk,2013-03-06 07:30:00,
2013-03-06 00:31:00,59.0,41.9,29.95,SSE,167,5.0,6.0,53,0.00,,,0.00,0,WeatherHawk,2013-03-06 07:31:00,
2013-03-06 00:33:00,58.8,41.7,29.95,SSE,163,5.0,-999.0,53,0.00,,,0.00,0,WeatherHawk,2013-03-06 07:33:00,
2013-03-06 00:37:00,58.6,42.0,29.95,SSE,159,3.0,6.0,54,0.00,,,0.00,0,WeatherHawk,2013-03-06 07:37:00,
2013-03-06 00:39:00,58.5,42.4,29.95,South,169,4.0,6.0,55,0.00,,,0.00,0,WeatherHawk,2013-03-06 07:39:00,
2013-03-06 00:44:00,58.5,42.8,29.95,SE,142,4.0,6.0,56,0.00,,,0.00,0,WeatherHawk,2013-03-06 07:44:00,
2013-03-06 00:45:00,58.3,42.7,29.95,SE,144,4.0,6.0,56,0.00,,,0.00,0,WeatherHawk,2013-03-06 07:45:00,
2013-03-06 00:49:00,58.1,43.4,29.95,SSE,149,4.0,-999.0,58,0.00,,,0.00,0,WeatherHawk,2013-03-06 07:49:00,
2013-03-06 00:50:00,58.1,43.4,29.95,SE,140,4.0,0.0,58,0.00,,,0.00,0,WeatherHawk,2013-03-06 07:50:00,
2013-03-06 00:51:00,58.3,43.6,29.95,SE,134,4.0,4.0,58,0.00,,,0.00,0,WeatherHawk,2013-03-06 07:51:00,
2013-03-06 00:54:00,58.5,43.7,29.95,SE,130,4.0,-999.0,58,0.00,,,0.00,0,WeatherHawk,2013-03-06 07:54:00,
2013-03-06 00:57:00,58.3,44.0,29.95,SE,132,4.0,4.0,59,0.00,,,0.00,0,WeatherHawk,2013-03-06 07:57:00,
2013-03-06 00:58:00,58.5,44.2,29.95,SE,135,4.0,4.0,59,0.00,,,0.00,0,WeatherHawk,2013-03-06 07:58:00,
2013-03-06 00:59:00,58.5,44.2,29.95,SE,135,4.0,-999.0,59,0.00,,,0.00,0,WeatherHawk,2013-03-06 07:59:00,
2013-03-06 01:04:00,58.5,44.2,29.95,ESE,113,4.0,5.0,59,0.00,,,0.00,0,WeatherHawk,2013-03-06 08:04:00,
2013-03-06 01:08:00,58.8,42.7,29.95,ESE,119,5.0,5.0,55,0.00,,,0.00,0,WeatherHawk,2013-03-06 08:08:00,
2013-03-06 01:09:00,58.8,42.7,29.95,ESE,119,5.0,5.0,55,0.00,,,0.00,0,WeatherHawk,2013-03-06 08:09:00,
2013-03-06 01:14:00,59.2,42.1,29.95,ESE,113,6.0,6.0,53,0.00,,,0.00,0,WeatherHawk,2013-03-06 08:14:00,
2013-03-06 01:15:00,59.4,41.7,29.95,SE,124,6.0,6.0,52,0.00,,,0.00,0,WeatherHawk,2013-03-06 08:15:00,
2013-03-06 01:16:00,59.4,41.7,29.95,ESE,122,5.0,5.0,52,0.00,,,0.00,0,WeatherHawk,2013-03-06 08:16:00,
2013-03-06 01:17:00,59.4,41.7,29.95,ESE,121,6.0,6.0,52,0.00,,,0.00,0,WeatherHawk,2013-03-06 08:17:00,
2013-03-06 01:19:00,59.4,41.7,29.95,SE,126,5.0,0.0,52,0.00,,,0.00,0,WeatherHawk,2013-03-06 08:19:00,
2013-03-06 01:21:00,59.5,41.9,29.95,SE,128,6.0,7.0,52,0.00,,,0.00,0,WeatherHawk,2013-03-06 08:21:00,
2013-03-06 01:22:00,59.5,41.9,29.95,ESE,121,6.0,7.0,52,0.00,,,0.00,0,WeatherHawk,2013-03-06 08:22:00,
2013-03-06 01:23:00,59.5,41.9,29.95,ESE,123,6.0,7.0,52,0.00,,,0.00,0,WeatherHawk,2013-03-06 08:23:00,
2013-03-06 01:26:00,59.4,41.2,29.95,ESE,118,7.0,7.0,51,0.00,,,0.00,0,WeatherHawk,2013-03-06 08:26:00,
2013-03-06 01:29:00,59.4,41.7,29.94,ESE,120,6.0,7.0,52,0.00,,,0.00,0,WeatherHawk,2013-03-06 08:29:00,
2013-03-06 01:30:00,59.2,41.6,29.94,ESE,120,7.0,9.0,52,0.00,,,0.00,0,WeatherHawk,2013-03-06 08:30:00,
2013-03-06 01:31:00,59.2,42.1,29.94,SE,124,6.0,9.0,53,0.00,,,0.00,0,WeatherHawk,2013-03-06 08:31:00,
2013-03-06 01:34:00,59.2,42.1,29.94,ESE,123,6.0,9.0,53,0.00,,,0.00,0,WeatherHawk,2013-03-06 08:34:00,
2013-03-06 01:36:00,59.0,42.4,29.94,SE,129,8.0,9.0,54,0.00,,,0.00,0,WeatherHawk,2013-03-06 08:36:00,
2013-03-06 01:39:00,59.0,42.9,29.94,SE,125,8.0,9.0,55,0.00,,,0.00,0,WeatherHawk,2013-03-06 08:39:00,
2013-03-06 01:41:00,59.0,43.3,29.94,SE,131,10.0,10.0,56,0.00,,,0.00,0,WeatherHawk,2013-03-06 08:41:00,
2013-03-06 01:42:00,59.2,43.5,29.94,SE,126,8.0,9.0,56,0.00,,,0.00,0,WeatherHawk,2013-03-06 08:42:00,
2013-03-06 01:44:00,59.4,43.7,29.94,SE,124,9.0,9.0,56,0.00,,,0.00,0,WeatherHawk,2013-03-06 08:44:00,
2013-03-06 01:48:00,59.7,44.0,29.94,SE,124,11.0,11.0,56,0.00,,,0.00,0,WeatherHawk,2013-03-06 08:48:00,
2013-03-06 01:49:00,59.7,44.0,29.94,SE,124,11.0,-999.0,56,0.00,,,0.00,0,WeatherHawk,2013-03-06 08:49:00,
2013-03-06 01:52:00,59.7,44.0,29.94,SE,128,9.0,11.0,56,0.00,,,0.00,0,WeatherHawk,2013-03-06 08:52:00,
2013-03-06 01:54:00,59.7,44.0,29.94,ESE,122,7.0,11.0,56,0.00,,,0.00,0,WeatherHawk,2013-03-06 08:54:00,
2013-03-06 01:55:00,59.7,44.0,29.93,SE,127,7.0,11.0,56,0.00,,,0.00,0,WeatherHawk,2013-03-06 08:55:00,
2013-03-06 01:58:00,59.7,44.5,29.93,SE,127,8.0,11.0,57,0.00,,,0.00,0,WeatherHawk,2013-03-06 08:58:00,
2013-03-06 01:59:00,59.7,44.5,29.93,SE,127,8.0,11.0,57,0.00,,,0.00,0,WeatherHawk,2013-03-06 08:59:00,
2013-03-06 02:04:00,59.9,44.6,29.93,ESE,122,10.0,10.0,57,0.00,,,0.00,0,WeatherHawk,2013-03-06 09:04:00,
2013-03-06 02:05:00,59.9,44.2,29.93,ESE,122,9.0,10.0,56,0.00,,,0.00,0,WeatherHawk,2013-03-06 09:05:00,
2013-03-06 02:07:00,60.1,44.3,29.93,SE,128,10.0,10.0,56,0.00,,,0.00,0,WeatherHawk,2013-03-06 09:07:00,
2013-03-06 02:09:00,60.1,44.3,29.93,SE,127,9.0,11.0,56,0.00,,,0.00,0,WeatherHawk,2013-03-06 09:09:00,
2013-03-06 02:13:00,60.3,44.5,29.93,ESE,118,8.0,11.0,56,0.00,,,0.00,0,WeatherHawk,2013-03-06 09:13:00,
2013-03-06 02:14:00,60.3,44.5,29.93,ESE,118,8.0,11.0,56,0.00,,,0.00,0,WeatherHawk,2013-03-06 09:14:00,
2013-03-06 02:19:00,59.9,44.6,29.93,ESE,121,9.0,11.0,57,0.00,,,0.00,0,WeatherHawk,2013-03-06 09:19:00,
2013-03-06 02:23:00,60.3,45.0,29.93,SE,132,11.0,13.0,57,0.00,,,0.00,0,WeatherHawk,2013-03-06 09:23:00,
2013-03-06 02:24:00,60.3,45.0,29.93,SE,132,11.0,13.0,57,0.00,,,0.00,0,WeatherHawk,2013-03-06 09:24:00,
2013-03-06 02:25:00,60.3,45.0,29.93,SE,126,9.0,13.0,57,0.00,,,0.00,0,WeatherHawk,2013-03-06 09:25:00,
2013-03-06 02:26:00,60.3,45.0,29.93,ESE,122,14.0,14.0,57,0.00,,,0.00,0,WeatherHawk,2013-03-06 09:26:00,
2013-03-06 02:29:00,60.3,45.0,29.93,ESE,122,13.0,13.0,57,0.00,,,0.00,0,WeatherHawk,2013-03-06 09:29:00,
2013-03-06 02:30:00,60.1,44.8,29.93,ESE,119,11.0,14.0,57,0.00,,,0.00,0,WeatherHawk,2013-03-06 09:30:00,
2013-03-06 02:31:00,59.9,44.6,29.93,SE,128,9.0,14.0,57,0.00,,,0.00,0,WeatherHawk,2013-03-06 09:31:00,
2013-03-06 02:35:00,59.7,44.9,29.93,SE,132,10.0,14.0,58,0.00,,,0.00,0,WeatherHawk,2013-03-06 09:35:00,
2013-03-06 02:37:00,59.5,44.7,29.93,ESE,121,6.0,14.0,58,0.00,,,0.00,0,WeatherHawk,2013-03-06 09:37:00,
2013-03-06 02:38:00,59.5,44.7,29.93,SE,134,6.0,14.0,58,0.00,,,0.00,0,WeatherHawk,2013-03-06 09:38:00,
2013-03-06 02:39:00,59.5,44.7,29.93,SE,127,6.0,13.0,58,0.00,,,0.00,0,WeatherHawk,2013-03-06 09:39:00,
2013-03-06 02:41:00,59.5,45.2,29.94,SE,140,2.0,13.0,59,0.00,,,0.00,0,WeatherHawk,2013-03-06 09:41:00,
2013-03-06 02:44:00,59.4,45.0,29.94,WNW,300,6.0,13.0,59,0.00,,,0.00,0,WeatherHawk,2013-03-06 09:44:00,
2013-03-06 02:46:00,58.6,45.2,29.94,NW,311,5.0,13.0,61,0.00,,,0.00,0,WeatherHawk,2013-03-06 09:46:00,
2013-03-06 02:47:00,57.9,45.0,29.94,NW,318,4.0,13.0,62,0.00,,,0.00,0,WeatherHawk,2013-03-06 09:47:00,
2013-03-06 02:49:00,57.4,44.9,29.94,NNW,328,3.0,7.0,63,0.00,,,0.00,0,WeatherHawk,2013-03-06 09:49:00,
2013-03-06 02:53:00,57.0,45.0,29.93,NNE,20,2.0,7.0,64,0.00,,,0.00,0,WeatherHawk,2013-03-06 09:53:00,
2013-03-06 02:54:00,57.2,45.1,29.93,ENE,69,2.0,7.0,64,0.00,,,0.00,0,WeatherHawk,2013-03-06 09:54:00,
2013-03-06 02:55:00,57.4,44.9,29.93,East,83,2.0,7.0,63,0.00,,,0.00,0,WeatherHawk,2013-03-06 09:55:00,
2013-03-06 02:59:00,57.9,45.4,29.93,ENE,69,4.0,4.0,63,0.00,,,0.00,0,WeatherHawk,2013-03-06 09:59:00,
2013-03-06 03:00:00,58.1,45.1,29.93,ENE,75,2.0,4.0,62,0.00,,,0.00,1,WeatherHawk,2013-03-06 10:00:00,
2013-03-06 03:02:00,58.1,45.1,29.93,East,86,3.0,4.0,62,0.00,,,0.00,0,WeatherHawk,2013-03-06 10:02:00,
2013-03-06 03:04:00,58.3,45.3,29.93,East,93,3.0,4.0,62,0.00,,,0.00,0,WeatherHawk,2013-03-06 10:04:00,
2013-03-06 03:06:00,58.3,45.3,29.93,ESE,115,3.0,4.0,62,0.00,,,0.00,0,WeatherHawk,2013-03-06 10:06:00,
2013-03-06 03:07:00,58.5,45.5,29.93,East,82,2.0,4.0,62,0.00,,,0.00,0,WeatherHawk,2013-03-06 10:07:00,
2013-03-06 03:11:00,58.5,45.1,29.93,ESE,102,2.0,5.0,61,0.00,,,0.00,0,WeatherHawk,2013-03-06 10:11:00,
2013-03-06 03:12:00,58.6,45.2,29.92,ENE,73,0.0,5.0,61,0.00,,,0.00,0,WeatherHawk,2013-03-06 10:12:00,
2013-03-06 03:13:00,58.5,45.1,29.92,ENE,73,1.0,5.0,61,0.00,,,0.00,0,WeatherHawk,2013-03-06 10:13:00,
2013-03-06 03:16:00,58.5,45.1,29.92,SSE,153,0.0,5.0,61,0.00,,,0.00,0,WeatherHawk,2013-03-06 10:16:00,
2013-03-06 03:18:00,58.5,45.1,29.92,ENE,75,1.0,5.0,61,0.00,,,0.00,0,WeatherHawk,2013-03-06 10:18:00,
2013-03-06 03:19:00,58.5,45.1,29.92,East,87,1.0,3.0,61,0.00,,,0.00,0,WeatherHawk,2013-03-06 10:19:00,
2013-03-06 03:23:00,58.5,44.6,29.92,ENE,76,1.0,3.0,60,0.00,,,0.00,0,WeatherHawk,2013-03-06 10:23:00,
2013-03-06 03:24:00,58.5,44.6,29.92,ENE,58,1.0,3.0,60,0.00,,,0.00,0,WeatherHawk,2013-03-06 10:24:00,
2013-03-06 03:25:00,58.5,44.6,29.92,ENE,64,0.0,3.0,60,0.00,,,0.00,0,WeatherHawk,2013-03-06 10:25:00,
2013-03-06 03:28:00,58.3,44.9,29.92,WSW,242,2.0,3.0,61,0.00,,,0.00,0,WeatherHawk,2013-03-06 10:28:00,
2013-03-06 03:31:00,58.3,44.9,29.92,West,263,4.0,4.0,61,0.00,,,0.00,0,WeatherHawk,2013-03-06 10:31:00,
2013-03-06 03:33:00,58.5,44.6,29.92,West,281,4.0,4.0,60,0.00,,,0.00,0,WeatherHawk,2013-03-06 10:33:00,
2013-03-06 03:34:00,58.5,44.6,29.93,WNW,289,5.0,5.0,60,0.00,,,0.00,0,WeatherHawk,2013-03-06 10:34:00,
2013-03-06 03:38:00,56.7,44.6,29.93,WNW,303,6.0,6.0,64,0.00,,,0.00,0,WeatherHawk,2013-03-06 10:38:00,
2013-03-06 03:40:00,56.1,44.5,29.93,NW,312,5.0,7.0,65,0.00,,,0.00,0,WeatherHawk,2013-03-06 10:40:00,
2013-03-06 03:42:00,55.9,44.7,29.93,NNW,329,5.0,7.0,66,0.00,,,0.00,0,WeatherHawk,2013-03-06 10:42:00,
2013-03-06 03:44:00,55.9,44.7,29.93,NW,323,6.0,7.0,66,0.00,,,0.00,0,WeatherHawk,2013-03-06 10:44:00,
2013-03-06 03:45:00,55.9,44.7,29.93,NW,325,7.0,7.0,66,0.00,,,0.00,1,WeatherHawk,2013-03-06 10:45:00,
2013-03-06 03:48:00,55.2,44.8,29.93,NW,325,7.0,7.0,68,0.00,,,0.00,0,WeatherHawk,2013-03-06 10:48:00,
2013-03-06 03:51:00,54.9,44.9,29.94,NNW,327,6.0,7.0,69,0.00,,,0.00,0,WeatherHawk,2013-03-06 10:51:00,
2013-03-06 03:53:00,55.0,45.1,29.94,NNW,329,6.0,7.0,69,0.00,,,0.00,0,WeatherHawk,2013-03-06 10:53:00,
2013-03-06 03:57:00,55.0,44.7,29.94,NW,324,5.0,7.0,68,0.00,,,0.00,0,WeatherHawk,2013-03-06 10:57:00,
2013-03-06 03:58:00,55.0,44.7,29.94,NNW,339,5.0,7.0,68,0.00,,,0.00,0,WeatherHawk,2013-03-06 10:58:00,
2013-03-06 04:01:00,55.0,44.7,29.94,NNW,329,7.0,7.0,68,0.00,,,0.00,0,WeatherHawk,2013-03-06 11:01:00,
2013-03-06 04:02:00,55.2,44.8,29.94,NW,321,6.0,7.0,68,0.00,,,0.00,0,WeatherHawk,2013-03-06 11:02:00,
2013-03-06 04:03:00,55.2,44.5,29.94,WNW,303,6.0,7.0,67,0.00,,,0.00,0,WeatherHawk,2013-03-06 11:03:00,
2013-03-06 04:08:00,54.7,44.3,29.94,NW,320,6.0,7.0,68,0.00,,,0.00,0,WeatherHawk,2013-03-06 11:08:00,
2013-03-06 04:11:00,54.9,44.5,29.94,NW,325,7.0,7.0,68,0.00,,,0.00,0,WeatherHawk,2013-03-06 11:11:00,
2013-03-06 04:13:00,55.0,44.3,29.95,NNW,330,6.0,7.0,67,0.00,,,0.00,0,WeatherHawk,2013-03-06 11:13:00,
2013-03-06 04:16:00,55.0,44.3,29.95,NNW,332,7.0,7.0,67,0.00,,,0.00,0,WeatherHawk,2013-03-06 11:16:00,
2013-03-06 04:18:00,55.0,44.3,29.95,NNW,329,9.0,9.0,67,0.00,,,0.00,0,WeatherHawk,2013-03-06 11:18:00,
2013-03-06 04:22:00,55.4,44.2,29.96,NW,308,6.0,9.0,66,0.00,,,0.00,0,WeatherHawk,2013-03-06 11:22:00,
2013-03-06 04:23:00,55.0,43.9,29.96,NW,305,6.0,9.0,66,0.00,,,0.00,1,WeatherHawk,2013-03-06 11:23:00,
2013-03-06 04:27:00,54.3,44.0,29.96,NW,313,6.0,9.0,68,0.00,,,0.00,0,WeatherHawk,2013-03-06 11:27:00,
2013-03-06 04:28:00,54.1,43.8,29.96,NW,325,7.0,9.0,68,0.00,,,0.00,0,WeatherHawk,2013-03-06 11:28:00,
2013-03-06 04:29:00,54.0,43.6,29.96,NW,320,6.0,9.0,68,0.00,,,0.00,0,WeatherHawk,2013-03-06 11:29:00,
2013-03-06 04:32:00,53.8,43.5,29.96,NW,318,6.0,9.0,68,0.00,,,0.00,0,WeatherHawk,2013-03-06 11:32:00,
2013-03-06 04:33:00,53.8,43.5,29.96,NW,312,6.0,9.0,68,0.00,,,0.00,0,WeatherHawk,2013-03-06 11:33:00,
2013-03-06 04:34:00,53.8,43.5,29.96,NW,308,6.0,9.0,68,0.00,,,0.00,0,WeatherHawk,2013-03-06 11:34:00,
2013-03-06 04:35:00,53.6,43.7,29.96,NW,307,5.0,9.0,69,0.00,,,0.00,0,WeatherHawk,2013-03-06 11:35:00,
2013-03-06 04:38:00,53.4,43.5,29.96,NW,305,5.0,9.0,69,0.00,,,0.00,0,WeatherHawk,2013-03-06 11:38:00,
2013-03-06 04:40:00,53.4,43.5,29.96,NW,312,4.0,7.0,69,0.00,,,0.00,0,WeatherHawk,2013-03-06 11:40:00,
2013-03-06 04:42:00,53.4,43.5,29.96,NW,322,4.0,7.0,69,0.00,,,0.00,0,WeatherHawk,2013-03-06 11:42:00,
2013-03-06 04:43:00,53.6,43.3,29.96,NW,325,4.0,7.0,68,0.00,,,0.00,0,WeatherHawk,2013-03-06 11:43:00,
2013-03-06 04:45:00,53.8,43.5,29.96,NW,316,4.0,7.0,68,0.00,,,0.00,0,WeatherHawk,2013-03-06 11:45:00,
2013-03-06 04:47:00,53.8,43.1,29.96,NW,314,3.0,7.0,67,0.00,,,0.00,0,WeatherHawk,2013-03-06 11:47:00,
2013-03-06 04:48:00,54.0,43.3,29.96,NW,324,3.0,-999.0,67,0.00,,,0.00,1,WeatherHawk,2013-03-06 11:48:00,
2013-03-06 04:52:00,54.0,42.9,29.96,NNW,334,3.0,6.0,66,0.00,,,0.00,0,WeatherHawk,2013-03-06 11:52:00,
2013-03-06 04:53:00,54.3,43.2,29.96,NNW,335,3.0,6.0,66,0.00,,,0.00,0,WeatherHawk,2013-03-06 11:53:00,
2013-03-06 04:57:00,54.9,43.3,29.96,NW,311,2.0,6.0,65,0.00,,,0.00,0,WeatherHawk,2013-03-06 11:57:00,
2013-03-06 04:58:00,54.9,42.9,29.96,NW,312,3.0,-999.0,64,0.00,,,0.00,1,WeatherHawk,2013-03-06 11:58:00,
2013-03-06 04:59:00,54.9,42.9,29.96,NW,306,4.0,0.0,64,0.00,,,0.00,0,WeatherHawk,2013-03-06 11:59:00,
2013-03-06 05:00:00,54.9,42.9,29.96,NW,313,4.0,0.0,64,0.00,,,0.00,0,WeatherHawk,2013-03-06 12:00:00,
2013-03-06 05:03:00,55.2,42.8,29.96,NW,318,4.0,4.0,63,0.00,,,0.00,0,WeatherHawk,2013-03-06 12:03:00,
2013-03-06 05:04:00,55.2,42.8,29.96,NW,323,4.0,4.0,63,0.00,,,0.00,0,WeatherHawk,2013-03-06 12:04:00,
2013-03-06 05:08:00,55.2,42.8,29.96,NW,319,5.0,5.0,63,0.00,,,0.00,0,WeatherHawk,2013-03-06 12:08:00,
2013-03-06 05:10:00,55.4,43.0,29.96,NW,317,5.0,6.0,63,0.00,,,0.00,0,WeatherHawk,2013-03-06 12:10:00,
2013-03-06 05:13:00,55.2,42.4,29.97,NW,319,6.0,6.0,62,0.00,,,0.00,1,WeatherHawk,2013-03-06 12:13:00,
2013-03-06 05:15:00,55.2,42.4,29.96,NW,318,5.0,6.0,62,0.00,,,0.00,0,WeatherHawk,2013-03-06 12:15:00,
2013-03-06 05:18:00,55.0,42.3,29.96,NW,325,5.0,7.0,62,0.00,,,0.00,0,WeatherHawk,2013-03-06 12:18:00,
2013-03-06 05:20:00,54.9,42.5,29.96,NNW,329,6.0,7.0,63,0.00,,,0.00,0,WeatherHawk,2013-03-06 12:20:00,
2013-03-06 05:24:00,54.5,42.2,29.97,NNW,329,6.0,7.0,63,0.00,,,0.00,0,WeatherHawk,2013-03-06 12:24:00,
2013-03-06 05:26:00,54.3,42.0,29.96,NW,326,4.0,7.0,63,0.00,,,0.00,0,WeatherHawk,2013-03-06 12:26:00,
2013-03-06 05:27:00,54.3,42.0,29.96,NW,326,4.0,7.0,63,0.00,,,0.00,0,WeatherHawk,2013-03-06 12:27:00,
2013-03-06 05:30:00,54.3,41.6,29.96,NNW,328,5.0,6.0,62,0.00,,,0.00,0,WeatherHawk,2013-03-06 12:30:00,
2013-03-06 05:33:00,54.3,41.2,29.97,NNW,330,5.0,6.0,61,0.00,,,0.00,0,WeatherHawk,2013-03-06 12:33:00,
2013-03-06 05:34:00,54.3,41.2,29.97,NNW,329,4.0,6.0,61,0.00,,,0.00,0,WeatherHawk,2013-03-06 12:34:00,
2013-03-06 05:36:00,54.3,40.7,29.97,NNW,340,4.0,6.0,60,0.00,,,0.00,0,WeatherHawk,2013-03-06 12:36:00,
2013-03-06 05:40:00,54.5,40.5,29.97,NNW,342,3.0,6.0,59,0.00,,,0.00,0,WeatherHawk,2013-03-06 12:40:00,
2013-03-06 05:42:00,54.5,40.5,29.96,NNW,346,3.0,6.0,59,0.00,,,0.00,0,WeatherHawk,2013-03-06 12:42:00,
2013-03-06 05:43:00,54.5,40.5,29.96,NNW,346,3.0,6.0,59,0.00,,,0.00,0,WeatherHawk,2013-03-06 12:43:00,
2013-03-06 05:47:00,54.9,40.4,29.96,North,2,2.0,6.0,58,0.00,,,0.00,0,WeatherHawk,2013-03-06 12:47:00,
2013-03-06 05:48:00,54.9,40.4,29.96,North,354,2.0,6.0,58,0.00,,,0.00,0,WeatherHawk,2013-03-06 12:48:00,
2013-03-06 05:51:00,54.9,39.9,29.97,NNW,345,2.0,4.0,57,0.00,,,0.00,0,WeatherHawk,2013-03-06 12:51:00,
2013-03-06 05:53:00,55.0,39.6,29.97,North,349,2.0,4.0,56,0.00,,,0.00,1,WeatherHawk,2013-03-06 12:53:00,
2013-03-06 05:56:00,55.0,39.6,29.97,NNW,339,2.0,4.0,56,0.00,,,0.00,0,WeatherHawk,2013-03-06 12:56:00,
2013-03-06 05:57:00,55.0,39.6,29.97,NNW,347,2.0,4.0,56,0.00,,,0.00,0,WeatherHawk,2013-03-06 12:57:00,
2013-03-06 05:58:00,55.0,39.6,29.97,NNW,347,2.0,4.0,56,0.00,,,0.00,0,WeatherHawk,2013-03-06 12:58:00,
2013-03-06 06:00:00,55.0,39.6,29.97,North,351,2.0,3.0,56,0.00,,,0.00,0,WeatherHawk,2013-03-06 13:00:00,
2013-03-06 06:03:00,54.9,39.0,29.97,NNW,344,4.0,4.0,55,0.00,,,0.00,0,WeatherHawk,2013-03-06 13:03:00,
2013-03-06 06:05:00,54.9,39.0,29.97,North,349,5.0,5.0,55,0.00,,,0.00,0,WeatherHawk,2013-03-06 13:05:00,
2013-03-06 06:07:00,55.2,38.9,29.97,NNW,340,5.0,5.0,54,0.00,,,0.00,0,WeatherHawk,2013-03-06 13:07:00,
2013-03-06 06:09:00,55.4,39.0,29.98,NNW,341,5.0,7.0,54,0.00,,,0.00,0,WeatherHawk,2013-03-06 13:09:00,
2013-03-06 06:13:00,55.4,38.6,29.98,NNW,338,4.0,7.0,53,0.00,,,0.00,0,WeatherHawk,2013-03-06 13:13:00,
2013-03-06 06:15:00,55.4,38.6,29.98,NNW,343,6.0,7.0,53,0.00,,,0.00,0,WeatherHawk,2013-03-06 13:15:00,
2013-03-06 06:17:00,55.4,38.6,29.98,North,350,4.0,7.0,53,0.00,,,0.00,0,WeatherHawk,2013-03-06 13:17:00,
2013-03-06 06:20:00,55.4,38.6,29.98,North,355,4.0,6.0,53,0.00,,,0.00,0,WeatherHawk,2013-03-06 13:20:00,
2013-03-06 06:22:00,55.2,38.4,29.98,North,355,4.0,6.0,53,0.00,,,0.00,1,WeatherHawk,2013-03-06 13:22:00,
2013-03-06 06:23:00,55.2,38.4,29.98,North,355,4.0,6.0,53,0.00,,,0.00,1,WeatherHawk,2013-03-06 13:23:00,
2013-03-06 06:27:00,55.0,38.7,29.98,North,8,4.0,6.0,54,0.00,,,0.00,0,WeatherHawk,2013-03-06 13:27:00,
2013-03-06 06:28:00,55.0,38.7,29.98,North,9,4.0,-999.0,54,0.00,,,0.00,0,WeatherHawk,2013-03-06 13:28:00,
2013-03-06 06:31:00,55.2,38.9,29.98,North,5,4.0,5.0,54,0.00,,,0.00,0,WeatherHawk,2013-03-06 13:31:00,
2013-03-06 06:33:00,55.0,38.7,29.98,North,0,4.0,5.0,54,0.00,,,0.00,0,WeatherHawk,2013-03-06 13:33:00,
2013-03-06 06:35:00,55.0,38.7,29.98,North,2,4.0,5.0,54,0.00,,,0.00,0,WeatherHawk,2013-03-06 13:35:00,
2013-03-06 06:36:00,55.0,38.7,29.98,North,359,4.0,5.0,54,0.00,,,0.00,0,WeatherHawk,2013-03-06 13:36:00,
2013-03-06 06:38:00,55.0,38.7,29.98,North,352,3.0,5.0,54,0.00,,,0.00,0,WeatherHawk,2013-03-06 13:38:00,
2013-03-06 06:40:00,55.0,38.2,29.98,North,350,5.0,5.0,53,0.00,,,0.00,0,WeatherHawk,2013-03-06 13:40:00,
2013-03-06 06:41:00,55.2,37.9,29.98,North,352,6.0,6.0,52,0.00,,,0.00,0,WeatherHawk,2013-03-06 13:41:00,
2013-03-06 06:44:00,55.6,38.2,29.99,NNW,343,9.0,9.0,52,0.00,,,0.00,0,WeatherHawk,2013-03-06 13:44:00,
2013-03-06 06:46:00,55.8,38.4,29.99,NNW,339,8.0,8.0,52,0.00,,,0.00,1,WeatherHawk,2013-03-06 13:46:00,
2013-03-06 06:47:00,55.8,37.9,29.99,NW,318,9.0,9.0,51,0.00,,,0.00,0,WeatherHawk,2013-03-06 13:47:00,
2013-03-06 06:48:00,55.8,38.4,29.99,NNW,340,7.0,7.0,52,0.00,,,0.00,1,WeatherHawk,2013-03-06 13:48:00,
2013-03-06 06:53:00,55.0,38.2,29.99,NNW,334,6.0,10.0,53,0.00,,,0.00,2,WeatherHawk,2013-03-06 13:53:00,
2013-03-06 06:54:00,54.7,38.4,29.99,NNW,330,7.0,10.0,54,0.00,,,0.00,2,WeatherHawk,2013-03-06 13:54:00,
2013-03-06 06:59:00,54.7,38.4,29.99,NNW,333,8.0,8.0,54,0.00,,,0.00,5,WeatherHawk,2013-03-06 13:59:00,
2013-03-06 07:01:00,54.9,38.1,29.99,NNW,333,6.0,8.0,53,0.00,,,0.00,6,WeatherHawk,2013-03-06 14:01:00,
2013-03-06 07:02:00,54.9,38.5,29.99,NNW,337,6.0,8.0,54,0.00,,,0.00,7,WeatherHawk,2013-03-06 14:02:00,
2013-03-06 07:04:00,54.7,38.4,29.99,NNW,337,5.0,8.0,54,0.00,,,0.00,11,WeatherHawk,2013-03-06 14:04:00,
2013-03-06 07:05:00,54.5,38.2,29.99,NNW,338,5.0,8.0,54,0.00,,,0.00,14,WeatherHawk,2013-03-06 14:05:00,
2013-03-06 07:06:00,54.5,38.2,29.99,NNW,340,5.0,8.0,54,0.00,,,0.00,16,WeatherHawk,2013-03-06 14:06:00,
2013-03-06 07:08:00,54.5,38.7,29.99,NNW,343,5.0,8.0,55,0.00,,,0.00,22,WeatherHawk,2013-03-06 14:08:00,
2013-03-06 07:11:00,54.3,38.5,29.99,NNW,346,4.0,8.0,55,0.00,,,0.00,32,WeatherHawk,2013-03-06 14:11:00,
2013-03-06 07:13:00,54.1,38.3,29.99,NNW,346,4.0,8.0,55,0.00,,,0.00,36,WeatherHawk,2013-03-06 14:13:00,
2013-03-06 07:17:00,54.3,38.5,29.99,NNW,342,5.0,8.0,55,0.00,,,0.00,48,WeatherHawk,2013-03-06 14:17:00,
2013-03-06 07:18:00,54.3,38.5,29.99,NNW,344,4.0,-999.0,55,0.00,,,0.00,48,WeatherHawk,2013-03-06 14:18:00,
2013-03-06 07:22:00,54.5,38.7,29.99,NNW,340,4.0,6.0,55,0.00,,,0.00,67,WeatherHawk,2013-03-06 14:22:00,
2013-03-06 07:23:00,54.5,38.7,29.99,NNW,340,4.0,-999.0,55,0.00,,,0.00,67,WeatherHawk,2013-03-06 14:23:00,
2013-03-06 07:28:00,54.5,38.7,29.99,NNW,344,4.0,6.0,55,0.00,,,0.00,84,WeatherHawk,2013-03-06 14:28:00,
2013-03-06 07:31:00,54.7,38.8,29.99,NNW,342,4.0,6.0,55,0.00,,,0.00,95,WeatherHawk,2013-03-06 14:31:00,
2013-03-06 07:33:00,54.7,38.8,29.99,NNW,341,3.0,6.0,55,0.00,,,0.00,100,WeatherHawk,2013-03-06 14:33:00,
2013-03-06 07:37:00,54.9,39.0,29.99,NNW,337,4.0,6.0,55,0.00,,,0.00,121,WeatherHawk,2013-03-06 14:37:00,
2013-03-06 07:38:00,55.0,39.2,29.99,North,352,4.0,-999.0,55,0.00,,,0.00,125,WeatherHawk,2013-03-06 14:38:00,
2013-03-06 07:43:00,55.2,38.9,29.99,NNW,337,4.0,-999.0,54,0.00,,,0.00,144,WeatherHawk,2013-03-06 14:43:00,
2013-03-06 07:44:00,55.2,38.9,30.00,NNW,347,3.0,4.0,54,0.00,,,0.00,152,WeatherHawk,2013-03-06 14:44:00,
2013-03-06 07:48:00,55.6,39.2,29.99,North,8,4.0,4.0,54,0.00,,,0.00,164,WeatherHawk,2013-03-06 14:48:00,
2013-03-06 07:49:00,55.6,39.2,29.99,North,2,4.0,4.0,54,0.00,,,0.00,172,WeatherHawk,2013-03-06 14:49:00,
2013-03-06 07:55:00,56.1,39.2,29.99,North,350,3.0,4.0,53,0.00,,,0.00,191,WeatherHawk,2013-03-06 14:55:00,
2013-03-06 07:57:00,56.3,39.4,29.99,NNW,345,4.0,4.0,53,0.00,,,0.00,190,WeatherHawk,2013-03-06 14:57:00,
2013-03-06 07:58:00,56.5,39.1,29.99,NNW,347,5.0,0.0,52,0.00,,,0.00,197,WeatherHawk,2013-03-06 14:58:00,
2013-03-06 08:01:00,56.7,39.2,30.00,NNW,333,6.0,6.0,52,0.00,,,0.00,207,WeatherHawk,2013-03-06 15:01:00,
2013-03-06 08:02:00,56.8,39.4,30.00,NNW,339,6.0,6.0,52,0.00,,,0.00,203,WeatherHawk,2013-03-06 15:02:00,
2013-03-06 08:03:00,56.8,39.4,30.00,NNW,341,6.0,6.0,52,0.00,,,0.00,197,WeatherHawk,2013-03-06 15:03:00,
2013-03-06 08:06:00,56.8,39.4,30.00,NNW,344,6.0,6.0,52,0.00,,,0.00,213,WeatherHawk,2013-03-06 15:06:00,
2013-03-06 08:07:00,57.0,39.6,30.00,NNW,347,6.0,6.0,52,0.00,,,0.00,212,WeatherHawk,2013-03-06 15:07:00,
2013-03-06 08:08:00,57.0,39.6,30.00,NNW,347,6.0,6.0,52,0.00,,,0.00,212,WeatherHawk,2013-03-06 15:08:00,
2013-03-06 08:09:00,57.0,39.6,30.00,NNW,328,6.0,8.0,52,0.00,,,0.00,193,WeatherHawk,2013-03-06 15:09:00,
2013-03-06 08:13:00,57.2,39.7,30.00,NNW,332,7.0,8.0,52,0.00,,,0.00,200,WeatherHawk,2013-03-06 15:13:00,
2013-03-06 08:16:00,57.4,40.4,30.00,NW,326,6.0,8.0,53,0.00,,,0.00,221,WeatherHawk,2013-03-06 15:16:00,
2013-03-06 08:18:00,57.4,40.9,30.00,NNW,332,7.0,8.0,54,0.00,,,0.00,200,WeatherHawk,2013-03-06 15:18:00,
2013-03-06 08:19:00,57.4,40.4,30.00,NNW,330,11.0,11.0,53,0.00,,,0.00,186,WeatherHawk,2013-03-06 15:19:00,
2013-03-06 08:21:00,57.4,40.9,30.01,NW,325,8.0,10.0,54,0.00,,,0.00,218,WeatherHawk,2013-03-06 15:21:00,
2013-03-06 08:23:00,57.6,41.0,30.01,NW,325,7.0,10.0,54,0.00,,,0.00,205,WeatherHawk,2013-03-06 15:23:00,
2013-03-06 08:26:00,57.6,41.0,30.01,NNW,329,7.0,10.0,54,0.00,,,0.00,245,WeatherHawk,2013-03-06 15:26:00,
2013-03-06 08:28:00,57.6,41.0,30.01,NNW,327,7.0,10.0,54,0.00,,,0.00,210,WeatherHawk,2013-03-06 15:28:00,
2013-03-06 08:31:00,57.7,40.7,30.01,NNW,327,6.0,11.0,53,0.00,,,0.00,278,WeatherHawk,2013-03-06 15:31:00,
2013-03-06 08:33:00,57.9,40.4,30.01,NW,321,9.0,11.0,52,0.00,,,0.00,261,WeatherHawk,2013-03-06 15:33:00,
2013-03-06 08:37:00,58.1,41.5,30.01,NW,319,7.0,11.0,54,0.00,,,0.00,299,WeatherHawk,2013-03-06 15:37:00,
2013-03-06 08:38:00,58.1,41.5,30.01,NW,319,7.0,11.0,54,0.00,,,0.00,307,WeatherHawk,2013-03-06 15:38:00,
2013-03-06 08:39:00,58.1,41.1,30.01,NW,322,8.0,9.0,53,0.00,,,0.00,293,WeatherHawk,2013-03-06 15:39:00,
2013-03-06 08:40:00,58.1,41.1,30.01,NNW,327,8.0,9.0,53,0.00,,,0.00,297,WeatherHawk,2013-03-06 15:40:00,
2013-03-06 08:42:00,58.3,41.7,30.01,NW,324,6.0,9.0,54,0.00,,,0.00,308,WeatherHawk,2013-03-06 15:42:00,
2013-03-06 08:45:00,58.5,40.9,30.01,NW,323,8.0,9.0,52,0.00,,,0.00,341,WeatherHawk,2013-03-06 15:45:00,
2013-03-06 08:46:00,58.5,40.9,30.01,NW,321,7.0,9.0,52,0.00,,,0.00,339,WeatherHawk,2013-03-06 15:46:00,
2013-03-06 08:48:00,58.6,41.6,30.02,NNW,327,7.0,9.0,53,0.00,,,0.00,343,WeatherHawk,2013-03-06 15:48:00,
2013-03-06 08:52:00,59.0,40.9,30.02,NW,319,11.0,11.0,51,0.00,,,0.00,260,WeatherHawk,2013-03-06 15:52:00,
2013-03-06 08:53:00,59.0,40.9,30.02,NW,319,11.0,11.0,51,0.00,,,0.00,260,WeatherHawk,2013-03-06 15:53:00,
2013-03-06 08:54:00,59.2,41.6,30.02,NW,321,9.0,9.0,52,0.00,,,0.00,285,WeatherHawk,2013-03-06 15:54:00,
2013-03-06 08:58:00,59.4,41.7,30.02,NW,321,7.0,-999.0,52,0.00,,,0.00,360,WeatherHawk,2013-03-06 15:58:00,
2013-03-06 08:59:00,59.5,41.4,30.02,NW,317,9.0,12.0,51,0.00,,,0.00,395,WeatherHawk,2013-03-06 15:59:00,
2013-03-06 09:02:00,59.7,41.0,30.02,NW,318,9.0,12.0,50,0.00,,,0.00,414,WeatherHawk,2013-03-06 16:02:00,
2013-03-06 09:03:00,59.7,41.0,30.02,NW,318,9.0,12.0,50,0.00,,,0.00,414,WeatherHawk,2013-03-06 16:03:00,
2013-03-06 09:05:00,59.9,40.7,30.02,NW,321,9.0,12.0,49,0.00,,,0.00,398,WeatherHawk,2013-03-06 16:05:00,
2013-03-06 09:08:00,60.3,40.5,30.02,NW,310,9.0,12.0,48,0.00,,,0.00,392,WeatherHawk,2013-03-06 16:08:00,
2013-03-06 09:09:00,60.4,40.1,30.02,NW,310,10.0,11.0,47,0.00,,,0.00,404,WeatherHawk,2013-03-06 16:09:00,
2013-03-06 09:12:00,60.4,40.7,30.02,NW,312,10.0,11.0,48,0.00,,,0.00,454,WeatherHawk,2013-03-06 16:12:00,
2013-03-06 09:13:00,60.4,41.2,30.02,NW,316,9.0,11.0,49,0.00,,,0.00,461,WeatherHawk,2013-03-06 16:13:00,
2013-03-06 09:14:00,60.4,40.7,30.02,NW,320,11.0,11.0,48,0.00,,,0.00,467,WeatherHawk,2013-03-06 16:14:00,
2013-03-06 09:20:00,61.0,40.6,30.02,NW,307,10.0,12.0,47,0.00,,,0.00,478,WeatherHawk,2013-03-06 16:20:00,
2013-03-06 09:21:00,61.0,41.1,30.02,NW,323,11.0,12.0,48,0.00,,,0.00,493,WeatherHawk,2013-03-06 16:21:00,
2013-03-06 09:22:00,61.0,40.1,30.02,NW,318,11.0,12.0,46,0.00,,,0.00,501,WeatherHawk,2013-03-06 16:22:00,
2013-03-06 09:25:00,61.0,40.6,30.02,NW,316,13.0,13.0,47,0.00,,,0.00,507,WeatherHawk,2013-03-06 16:25:00,
2013-03-06 09:27:00,60.8,40.4,30.02,NW,317,12.0,12.0,47,0.00,,,0.00,500,WeatherHawk,2013-03-06 16:27:00,
2013-03-06 09:28:00,60.8,40.4,30.02,NW,317,12.0,12.0,47,0.00,,,0.00,500,WeatherHawk,2013-03-06 16:28:00,
2013-03-06 09:30:00,61.2,40.2,30.02,NW,315,11.0,14.0,46,0.00,,,0.00,484,WeatherHawk,2013-03-06 16:30:00,
2013-03-06 09:32:00,61.2,40.8,30.02,NW,316,10.0,14.0,47,0.00,,,0.00,536,WeatherHawk,2013-03-06 16:32:00,
2013-03-06 09:37:00,61.5,40.5,30.03,NW,313,12.0,14.0,46,0.00,,,0.00,570,WeatherHawk,2013-03-06 16:37:00,
2013-03-06 09:38:00,61.5,40.5,30.03,NW,313,12.0,14.0,46,0.00,,,0.00,570,WeatherHawk,2013-03-06 16:38:00,
2013-03-06 09:42:00,62.1,41.0,30.03,WNW,303,11.0,14.0,46,0.00,,,0.00,581,WeatherHawk,2013-03-06 16:42:00,
2013-03-06 09:43:00,62.1,41.0,30.03,WNW,303,11.0,14.0,46,0.00,,,0.00,581,WeatherHawk,2013-03-06 16:43:00,
2013-03-06 09:46:00,62.1,42.1,30.02,NW,325,10.0,14.0,48,0.00,,,0.00,612,WeatherHawk,2013-03-06 16:46:00,
2013-03-06 09:48:00,62.4,40.8,30.02,NW,312,13.0,14.0,45,0.00,,,0.00,595,WeatherHawk,2013-03-06 16:48:00,
2013-03-06 09:50:00,62.6,40.4,30.02,NW,314,13.0,15.0,44,0.00,,,0.00,586,WeatherHawk,2013-03-06 16:50:00,
2013-03-06 09:51:00,62.6,41.0,30.02,NW,307,11.0,15.0,45,0.00,,,0.00,577,WeatherHawk,2013-03-06 16:51:00,
2013-03-06 09:55:00,62.6,40.4,30.02,NW,318,10.0,15.0,44,0.00,,,0.00,592,WeatherHawk,2013-03-06 16:55:00,
2013-03-06 09:56:00,62.6,40.4,30.02,NW,326,11.0,15.0,44,0.00,,,0.00,586,WeatherHawk,2013-03-06 16:56:00,
2013-03-06 09:59:00,62.8,39.9,30.02,NW,307,12.0,15.0,43,0.00,,,0.00,539,WeatherHawk,2013-03-06 16:59:00,
2013-03-06 10:03:00,63.0,40.1,30.02,NW,325,10.0,15.0,43,0.00,,,0.00,548,WeatherHawk,2013-03-06 17:03:00,
2013-03-06 10:04:00,63.3,39.8,30.02,NW,324,11.0,15.0,42,0.00,,,0.00,561,WeatherHawk,2013-03-06 17:04:00,
2013-03-06 10:08:00,63.1,39.7,30.02,NNW,330,12.0,0.0,42,0.00,,,0.00,572,WeatherHawk,2013-03-06 17:08:00,
2013-03-06 10:10:00,63.3,40.4,30.02,NW,323,13.0,13.0,43,0.00,,,0.00,583,WeatherHawk,2013-03-06 17:10:00,
2013-03-06 10:13:00,63.7,40.8,30.02,NW,318,10.0,-999.0,43,0.00,,,0.00,606,WeatherHawk,2013-03-06 17:13:00,
2013-03-06 10:14:00,64.0,39.2,30.02,NW,313,15.0,15.0,40,0.00,,,0.00,613,WeatherHawk,2013-03-06 17:14:00,
2013-03-06 10:15:00,64.0,38.6,30.02,NW,310,15.0,15.0,39,0.00,,,0.00,617,WeatherHawk,2013-03-06 17:15:00,
2013-03-06 10:17:00,63.9,40.3,30.02,NW,315,9.0,13.0,42,0.00,,,0.00,621,WeatherHawk,2013-03-06 17:17:00,
2013-03-06 10:18:00,63.9,40.3,30.02,NW,315,9.0,-999.0,42,0.00,,,0.00,621,WeatherHawk,2013-03-06 17:18:00,
2013-03-06 10:22:00,64.0,39.9,30.02,NW,306,11.0,15.0,41,0.00,,,0.00,606,WeatherHawk,2013-03-06 17:22:00,
2013-03-06 10:23:00,64.0,39.2,30.02,NW,308,11.0,15.0,40,0.00,,,0.00,609,WeatherHawk,2013-03-06 17:23:00,
2013-03-06 10:28:00,64.0,39.2,30.02,NW,308,11.0,15.0,40,0.00,,,0.00,653,WeatherHawk,2013-03-06 17:28:00,
2013-03-06 10:29:00,64.2,39.4,30.02,NW,307,10.0,14.0,40,0.00,,,0.00,642,WeatherHawk,2013-03-06 17:29:00,
2013-03-06 10:32:00,64.4,38.9,30.01,WNW,300,11.0,14.0,39,0.00,,,0.00,676,WeatherHawk,2013-03-06 17:32:00,
2013-03-06 10:33:00,64.4,38.9,30.01,WNW,300,11.0,14.0,39,0.00,,,0.00,676,WeatherHawk,2013-03-06 17:33:00,
2013-03-06 10:34:00,64.4,39.5,30.01,WNW,289,11.0,14.0,40,0.00,,,0.00,689,WeatherHawk,2013-03-06 17:34:00,
2013-03-06 10:37:00,64.8,39.9,30.01,WNW,297,11.0,14.0,40,0.00,,,0.00,714,WeatherHawk,2013-03-06 17:37:00,
2013-03-06 10:38:00,64.8,39.9,30.01,WNW,300,11.0,14.0,40,0.00,,,0.00,717,WeatherHawk,2013-03-06 17:38:00,
2013-03-06 10:43:00,64.8,38.6,30.01,NW,311,13.0,13.0,38,0.00,,,0.00,726,WeatherHawk,2013-03-06 17:43:00,
2013-03-06 10:44:00,64.9,38.0,30.01,NW,306,16.0,16.0,37,0.00,,,0.00,729,WeatherHawk,2013-03-06 17:44:00,
2013-03-06 10:46:00,65.1,38.9,30.01,NW,305,12.0,12.0,38,0.00,,,0.00,733,WeatherHawk,2013-03-06 17:46:00,
2013-03-06 10:48:00,65.1,40.2,30.01,NW,315,14.0,14.0,40,0.00,,,0.00,735,WeatherHawk,2013-03-06 17:48:00,
2013-03-06 10:49:00,65.1,38.2,30.01,NW,305,12.0,17.0,37,0.00,,,0.00,739,WeatherHawk,2013-03-06 17:49:00,
2013-03-06 10:50:00,65.1,38.2,30.01,WNW,303,12.0,17.0,37,0.00,,,0.00,744,WeatherHawk,2013-03-06 17:50:00,
2013-03-06 10:54:00,65.5,38.5,30.01,NW,313,15.0,17.0,37,0.00,,,0.00,750,WeatherHawk,2013-03-06 17:54:00,
2013-03-06 10:56:00,65.3,39.0,30.01,WNW,302,12.0,17.0,38,0.00,,,0.00,754,WeatherHawk,2013-03-06 17:56:00,
2013-03-06 10:59:00,65.3,38.4,30.01,NW,308,11.0,16.0,37,0.00,,,0.00,761,WeatherHawk,2013-03-06 17:59:00,
2013-03-06 11:01:00,65.5,38.5,30.01,NW,316,13.0,16.0,37,0.00,,,0.00,762,WeatherHawk,2013-03-06 18:01:00,
2013-03-06 11:05:00,65.8,39.5,30.01,NW,306,9.0,16.0,38,0.00,,,0.00,773,WeatherHawk,2013-03-06 18:05:00,
2013-03-06 11:08:00,65.8,38.8,30.01,NNW,330,12.0,16.0,37,0.00,,,0.00,777,WeatherHawk,2013-03-06 18:08:00,
2013-03-06 11:09:00,65.8,38.8,30.01,NW,320,10.0,15.0,37,0.00,,,0.00,781,WeatherHawk,2013-03-06 18:09:00,
2013-03-06 11:13:00,66.2,39.2,30.01,NW,310,10.0,15.0,37,0.00,,,0.00,783,WeatherHawk,2013-03-06 18:13:00,
2013-03-06 11:16:00,66.6,40.2,30.01,WNW,300,14.0,15.0,38,0.00,,,0.00,792,WeatherHawk,2013-03-06 18:16:00,
2013-03-06 11:17:00,66.6,39.5,30.01,NW,322,14.0,15.0,37,0.00,,,0.00,797,WeatherHawk,2013-03-06 18:17:00,
2013-03-06 11:21:00,66.6,38.1,30.01,NW,305,14.0,15.0,35,0.00,,,0.00,802,WeatherHawk,2013-03-06 18:21:00,
2013-03-06 11:22:00,66.6,38.8,30.01,WNW,301,13.0,15.0,36,0.00,,,0.00,808,WeatherHawk,2013-03-06 18:22:00,
2013-03-06 11:23:00,66.7,38.9,30.01,NW,311,13.0,15.0,36,0.00,,,0.00,806,WeatherHawk,2013-03-06 18:23:00,
2013-03-06 11:25:00,66.9,38.4,30.01,WNW,302,12.0,15.0,35,0.00,,,0.00,811,WeatherHawk,2013-03-06 18:25:00,
2013-03-06 11:28:00,66.9,38.4,30.00,WNW,298,15.0,-999.0,35,0.00,,,0.00,816,WeatherHawk,2013-03-06 18:28:00,
2013-03-06 11:29:00,66.7,38.9,30.00,WNW,296,13.0,17.0,36,0.00,,,0.00,818,WeatherHawk,2013-03-06 18:29:00,
2013-03-06 11:30:00,66.9,39.1,30.00,WNW,299,15.0,17.0,36,0.00,,,0.00,821,WeatherHawk,2013-03-06 18:30:00,
2013-03-06 11:33:00,67.1,37.8,30.00,NW,307,13.0,17.0,34,0.00,,,0.00,824,WeatherHawk,2013-03-06 18:33:00,
2013-03-06 11:34:00,67.3,38.7,30.00,NW,309,12.0,17.0,35,0.00,,,0.00,824,WeatherHawk,2013-03-06 18:34:00,
2013-03-06 11:36:00,67.5,38.8,30.00,NW,311,13.0,17.0,35,0.00,,,0.00,830,WeatherHawk,2013-03-06 18:36:00,
2013-03-06 11:38:00,67.6,39.7,30.00,WNW,296,13.0,17.0,36,0.00,,,0.00,831,WeatherHawk,2013-03-06 18:38:00,
2013-03-06 11:43:00,67.3,37.2,30.00,NW,304,13.0,-999.0,33,0.00,,,0.00,837,WeatherHawk,2013-03-06 18:43:00,
2013-03-06 11:44:00,67.5,37.3,30.00,NW,307,13.0,16.0,33,0.00,,,0.00,840,WeatherHawk,2013-03-06 18:44:00,
2013-03-06 11:45:00,67.5,38.1,30.00,NW,312,13.0,16.0,34,0.00,,,0.00,841,WeatherHawk,2013-03-06 18:45:00,
2013-03-06 11:48:00,67.6,38.3,30.00,NW,309,13.0,16.0,34,0.00,,,0.00,845,WeatherHawk,2013-03-06 18:48:00,
2013-03-06 11:52:00,67.6,36.7,30.00,WNW,301,11.0,16.0,32,0.00,,,0.00,853,WeatherHawk,2013-03-06 18:52:00,
2013-03-06 11:53:00,67.6,36.7,30.00,NW,308,11.0,16.0,32,0.00,,,0.00,856,WeatherHawk,2013-03-06 18:53:00,
2013-03-06 11:54:00,67.6,37.5,30.00,NW,316,12.0,16.0,33,0.00,,,0.00,855,WeatherHawk,2013-03-06 18:54:00,
2013-03-06 11:56:00,67.6,35.9,30.00,NW,312,11.0,16.0,31,0.00,,,0.00,857,WeatherHawk,2013-03-06 18:56:00,
2013-03-06 11:58:00,68.0,36.2,30.00,WNW,300,12.0,-999.0,31,0.00,,,0.00,857,WeatherHawk,2013-03-06 18:58:00,
2013-03-06 11:59:00,68.0,37.0,30.00,WNW,294,11.0,16.0,32,0.00,,,0.00,860,WeatherHawk,2013-03-06 18:59:00,
2013-03-06 12:00:00,68.2,37.2,30.00,NW,304,13.0,16.0,32,0.00,,,0.00,857,WeatherHawk,2013-03-06 19:00:00,
2013-03-06 12:01:00,68.4,35.7,30.00,NW,304,11.0,16.0,30,0.00,,,0.00,863,WeatherHawk,2013-03-06 19:01:00,
2013-03-06 12:03:00,68.4,36.5,30.00,NW,317,11.0,16.0,31,0.00,,,0.00,865,WeatherHawk,2013-03-06 19:03:00,
2013-03-06 12:05:00,68.5,36.7,29.99,WNW,298,11.0,16.0,31,0.00,,,0.00,869,WeatherHawk,2013-03-06 19:05:00,
2013-03-06 12:08:00,68.5,36.7,29.99,NW,308,11.0,-999.0,31,0.00,,,0.00,870,WeatherHawk,2013-03-06 19:08:00,
2013-03-06 12:09:00,68.5,36.7,29.99,NW,316,11.0,14.0,31,0.00,,,0.00,870,WeatherHawk,2013-03-06 19:09:00,
2013-03-06 12:10:00,68.7,36.0,29.99,NW,311,11.0,14.0,30,0.00,,,0.00,872,WeatherHawk,2013-03-06 19:10:00,
2013-03-06 12:13:00,68.7,36.9,29.99,NW,310,12.0,14.0,31,0.00,,,0.00,875,WeatherHawk,2013-03-06 19:13:00,
2013-03-06 12:15:00,68.7,36.0,29.99,NW,304,12.0,14.0,30,0.00,,,0.00,874,WeatherHawk,2013-03-06 19:15:00,
2013-03-06 12:18:00,68.5,37.5,29.99,NW,315,9.0,-999.0,32,0.00,,,0.00,870,WeatherHawk,2013-03-06 19:18:00,
2013-03-06 12:20:00,68.9,37.0,29.99,NW,304,10.0,14.0,31,0.00,,,0.00,875,WeatherHawk,2013-03-06 19:20:00,
2013-03-06 12:21:00,68.9,37.8,29.99,WNW,296,8.0,14.0,32,0.00,,,0.00,879,WeatherHawk,2013-03-06 19:21:00,
2013-03-06 12:23:00,69.1,37.2,29.99,NW,305,12.0,14.0,31,0.00,,,0.00,879,WeatherHawk,2013-03-06 19:23:00,
2013-03-06 12:27:00,69.4,36.6,29.99,WNW,283,9.0,14.0,30,0.00,,,0.00,884,WeatherHawk,2013-03-06 19:27:00,
2013-03-06 12:31:00,69.3,36.5,29.98,WNW,292,10.0,14.0,30,0.00,,,0.00,884,WeatherHawk,2013-03-06 19:31:00,
2013-03-06 12:32:00,69.4,35.8,29.98,NW,322,13.0,14.0,29,0.00,,,0.00,887,WeatherHawk,2013-03-06 19:32:00,
2013-03-06 12:34:00,69.4,34.9,29.98,WNW,296,13.0,14.0,28,0.00,,,0.00,887,WeatherHawk,2013-03-06 19:34:00,
2013-03-06 12:36:00,69.3,35.6,29.98,NW,322,9.0,14.0,29,0.00,,,0.00,890,WeatherHawk,2013-03-06 19:36:00,
2013-03-06 12:38:00,69.3,36.5,29.98,NW,319,8.0,-999.0,30,0.00,,,0.00,888,WeatherHawk,2013-03-06 19:38:00,
2013-03-06 12:42:00,69.6,35.9,29.98,NW,307,9.0,14.0,29,0.00,,,0.00,891,WeatherHawk,2013-03-06 19:42:00,
2013-03-06 12:44:00,69.6,36.8,29.98,WNW,293,10.0,14.0,30,0.00,,,0.00,890,WeatherHawk,2013-03-06 19:44:00,
2013-03-06 12:48:00,70.3,34.8,29.98,NW,309,7.0,0.0,27,0.00,,,0.00,892,WeatherHawk,2013-03-06 19:48:00,
2013-03-06 12:50:00,70.2,34.6,29.97,NNW,333,8.0,13.0,27,0.00,,,0.00,894,WeatherHawk,2013-03-06 19:50:00,
2013-03-06 12:52:00,70.2,34.6,29.97,NW,310,12.0,13.0,27,0.00,,,0.00,892,WeatherHawk,2013-03-06 19:52:00,
2013-03-06 12:56:00,70.5,34.9,29.97,WNW,294,10.0,13.0,27,0.00,,,0.00,891,WeatherHawk,2013-03-06 19:56:00,
2013-03-06 12:58:00,70.7,36.0,29.97,WNW,293,8.0,13.0,28,0.00,,,0.00,892,WeatherHawk,2013-03-06 19:58:00,
2013-03-06 13:01:00,70.7,34.1,29.97,NNW,334,9.0,12.0,26,0.00,,,0.00,890,WeatherHawk,2013-03-06 20:01:00,
2013-03-06 13:03:00,70.9,33.3,29.97,NNW,328,9.0,-999.0,25,0.00,,,0.00,887,WeatherHawk,2013-03-06 20:03:00,
2013-03-06 13:06:00,70.7,34.1,29.97,WNW,303,10.0,12.0,26,0.00,,,0.00,890,WeatherHawk,2013-03-06 20:06:00,
2013-03-06 13:08:00,70.7,34.1,29.97,WNW,298,10.0,12.0,26,0.00,,,0.00,888,WeatherHawk,2013-03-06 20:08:00,
2013-03-06 13:12:00,71.1,35.4,29.96,WNW,284,7.0,11.0,27,0.00,,,0.00,887,WeatherHawk,2013-03-06 20:12:00,
2013-03-06 13:13:00,71.1,35.4,29.96,WNW,284,7.0,11.0,27,0.00,,,0.00,887,WeatherHawk,2013-03-06 20:13:00,
2013-03-06 13:18:00,70.9,34.3,29.96,WNW,293,7.0,-999.0,26,0.00,,,0.00,881,WeatherHawk,2013-03-06 20:18:00,
2013-03-06 13:21:00,71.4,33.8,29.96,WNW,290,10.0,11.0,25,0.00,,,0.00,881,WeatherHawk,2013-03-06 20:21:00,
2013-03-06 13:23:00,71.4,32.7,29.96,WNW,286,8.0,-999.0,24,0.00,,,0.00,880,WeatherHawk,2013-03-06 20:23:00,
2013-03-06 13:24:00,71.6,32.9,29.96,WNW,302,10.0,11.0,24,0.00,,,0.00,880,WeatherHawk,2013-03-06 20:24:00,
2013-03-06 13:27:00,71.8,34.1,29.96,NW,318,7.0,11.0,25,0.00,,,0.00,875,WeatherHawk,2013-03-06 20:27:00,
2013-03-06 13:29:00,71.6,34.9,29.96,West,278,7.0,12.0,26,0.00,,,0.00,875,WeatherHawk,2013-03-06 20:29:00,
2013-03-06 13:31:00,72.0,34.2,29.96,West,268,9.0,12.0,25,0.00,,,0.00,874,WeatherHawk,2013-03-06 20:31:00,
2013-03-06 13:32:00,72.1,34.4,29.96,West,276,6.0,12.0,25,0.00,,,0.00,873,WeatherHawk,2013-03-06 20:32:00,
2013-03-06 13:33:00,72.1,34.4,29.96,West,276,6.0,-999.0,25,0.00,,,0.00,873,WeatherHawk,2013-03-06 20:33:00,
2013-03-06 13:38:00,72.1,33.3,29.95,NNW,335,7.0,12.0,24,0.00,,,0.00,867,WeatherHawk,2013-03-06 20:38:00,
2013-03-06 13:39:00,72.1,33.3,29.95,NNW,335,7.0,-999.0,24,0.00,,,0.00,867,WeatherHawk,2013-03-06 20:39:00,
2013-03-06 13:40:00,72.1,32.3,29.95,WNW,303,5.0,11.0,23,0.00,,,0.00,866,WeatherHawk,2013-03-06 20:40:00,
2013-03-06 13:42:00,72.1,32.3,29.95,West,281,2.0,11.0,23,0.00,,,0.00,864,WeatherHawk,2013-03-06 20:42:00,
2013-03-06 13:44:00,72.5,32.6,29.95,West,276,5.0,11.0,23,0.00,,,0.00,864,WeatherHawk,2013-03-06 20:44:00,
2013-03-06 13:46:00,72.7,32.7,29.95,West,265,4.0,11.0,23,0.00,,,0.00,862,WeatherHawk,2013-03-06 20:46:00,
2013-03-06 13:48:00,72.5,33.6,29.95,WSW,240,4.0,11.0,24,0.00,,,0.00,857,WeatherHawk,2013-03-06 20:48:00,
2013-03-06 13:49:00,72.7,32.7,29.95,WNW,290,9.0,9.0,23,0.00,,,0.00,859,WeatherHawk,2013-03-06 20:49:00,
2013-03-06 13:51:00,72.7,32.7,29.94,NW,304,4.0,8.0,23,0.00,,,0.00,855,WeatherHawk,2013-03-06 20:51:00,
2013-03-06 13:53:00,72.7,32.7,29.94,NW,312,2.0,8.0,23,0.00,,,0.00,854,WeatherHawk,2013-03-06 20:53:00,
2013-03-06 13:54:00,72.9,32.9,29.94,NW,326,6.0,8.0,23,0.00,,,0.00,853,WeatherHawk,2013-03-06 20:54:00,
2013-03-06 13:59:00,73.2,33.2,29.94,NW,325,6.0,8.0,23,0.00,,,0.00,845,WeatherHawk,2013-03-06 20:59:00,
2013-03-06 14:00:00,73.0,33.0,29.94,WNW,302,5.0,9.0,23,0.00,,,0.00,846,WeatherHawk,2013-03-06 21:00:00,
2013-03-06 14:04:00,73.2,32.1,29.94,WSW,251,7.0,-999.0,22,0.00,,,0.00,840,WeatherHawk,2013-03-06 21:04:00,
2013-03-06 14:07:00,73.4,33.3,29.94,West,259,9.0,9.0,23,0.00,,,0.00,835,WeatherHawk,2013-03-06 21:07:00,
2013-03-06 14:08:00,73.4,32.2,29.94,West,264,3.0,9.0,22,0.00,,,0.00,833,WeatherHawk,2013-03-06 21:08:00,
2013-03-06 14:09:00,73.4,32.2,29.94,West,264,3.0,9.0,22,0.00,,,0.00,833,WeatherHawk,2013-03-06 21:09:00,
2013-03-06 14:10:00,73.4,32.2,29.94,WNW,289,3.0,9.0,22,0.00,,,0.00,829,WeatherHawk,2013-03-06 21:10:00,
2013-03-06 14:13:00,73.6,33.5,29.93,WNW,294,5.0,9.0,23,0.00,,,0.00,824,WeatherHawk,2013-03-06 21:13:00,
2013-03-06 14:14:00,73.8,33.6,29.93,WNW,302,5.0,9.0,23,0.00,,,0.00,822,WeatherHawk,2013-03-06 21:14:00,
2013-03-06 14:16:00,73.9,33.8,29.93,WNW,283,6.0,9.0,23,0.00,,,0.00,820,WeatherHawk,2013-03-06 21:16:00,
2013-03-06 14:19:00,73.9,32.7,29.93,WNW,299,4.0,9.0,22,0.00,,,0.00,815,WeatherHawk,2013-03-06 21:19:00,
2013-03-06 14:21:00,74.3,33.0,29.93,NNW,340,7.0,8.0,22,0.00,,,0.00,811,WeatherHawk,2013-03-06 21:21:00,
2013-03-06 14:22:00,74.1,32.8,29.93,NW,323,9.0,9.0,22,0.00,,,0.00,808,WeatherHawk,2013-03-06 21:22:00,
2013-03-06 14:23:00,74.1,32.8,29.93,NW,313,4.0,8.0,22,0.00,,,0.00,807,WeatherHawk,2013-03-06 21:23:00,
2013-03-06 14:24:00,74.1,32.8,29.93,NW,313,4.0,8.0,22,0.00,,,0.00,807,WeatherHawk,2013-03-06 21:24:00,
2013-03-06 14:28:00,74.1,32.8,29.92,West,270,1.0,8.0,22,0.00,,,0.00,798,WeatherHawk,2013-03-06 21:28:00,
2013-03-06 14:29:00,74.1,32.8,29.92,West,270,1.0,-999.0,22,0.00,,,0.00,798,WeatherHawk,2013-03-06 21:29:00,
2013-03-06 14:33:00,75.0,32.4,29.92,NNW,334,4.0,9.0,21,0.00,,,0.00,786,WeatherHawk,2013-03-06 21:33:00,
2013-03-06 14:34:00,75.0,32.4,29.92,NNW,329,2.0,9.0,21,0.00,,,0.00,781,WeatherHawk,2013-03-06 21:34:00,
2013-03-06 14:35:00,75.0,32.4,29.92,NNW,328,4.0,9.0,21,0.00,,,0.00,781,WeatherHawk,2013-03-06 21:35:00,
2013-03-06 14:38:00,74.5,32.0,29.92,North,7,5.0,9.0,21,0.00,,,0.00,771,WeatherHawk,2013-03-06 21:38:00,
2013-03-06 14:39:00,74.5,32.0,29.92,North,7,5.0,9.0,21,0.00,,,0.00,771,WeatherHawk,2013-03-06 21:39:00,
2013-03-06 14:41:00,73.9,32.7,29.92,NNW,338,5.0,6.0,22,0.00,,,0.00,767,WeatherHawk,2013-03-06 21:41:00,
2013-03-06 14:44:00,74.1,33.9,29.92,NW,315,4.0,-999.0,23,0.00,,,0.00,762,WeatherHawk,2013-03-06 21:44:00,
2013-03-06 14:45:00,74.5,33.1,29.92,WSW,255,6.0,6.0,22,0.00,,,0.00,759,WeatherHawk,2013-03-06 21:45:00,
2013-03-06 14:46:00,74.7,33.3,29.92,West,261,7.0,7.0,22,0.00,,,0.00,756,WeatherHawk,2013-03-06 21:46:00,
2013-03-06 14:49:00,74.7,33.3,20.02,WSW,257,3.0,0.0,22,0.00,,,0.00,748,WeatherHawk,2013-03-06 21:49:00,
2013-03-06 14:52:00,75.0,33.6,29.92,NNW,344,6.0,8.0,22,0.00,,,0.00,741,WeatherHawk,2013-03-06 21:52:00,
2013-03-06 14:54:00,75.0,33.6,29.92,NW,319,4.0,8.0,22,0.00,,,0.00,740,WeatherHawk,2013-03-06 21:54:00,
2013-03-06 14:59:00,74.5,33.1,29.91,WNW,286,4.0,8.0,22,0.00,,,0.00,722,WeatherHawk,2013-03-06 21:59:00,
2013-03-06 15:04:00,74.5,32.0,29.91,NNW,334,4.0,-999.0,21,0.00,,,0.00,716,WeatherHawk,2013-03-06 22:04:00,
2013-03-06 15:06:00,74.7,33.3,29.91,WNW,301,3.0,7.0,22,0.00,,,0.00,708,WeatherHawk,2013-03-06 22:06:00,
2013-03-06 15:07:00,74.7,33.3,29.91,North,355,6.0,7.0,22,0.00,,,0.00,706,WeatherHawk,2013-03-06 22:07:00,
2013-03-06 15:09:00,74.5,33.1,29.91,NW,305,7.0,-999.0,22,0.00,,,0.00,701,WeatherHawk,2013-03-06 22:09:00,
2013-03-06 15:12:00,74.5,34.2,29.91,WNW,290,7.0,8.0,23,0.00,,,0.00,694,WeatherHawk,2013-03-06 22:12:00,
2013-03-06 15:13:00,74.7,34.4,29.91,NNW,338,4.0,8.0,23,0.00,,,0.00,693,WeatherHawk,2013-03-06 22:13:00,
2013-03-06 15:16:00,74.8,33.4,29.91,East,94,1.0,8.0,22,0.00,,,0.00,681,WeatherHawk,2013-03-06 22:16:00,
2013-03-06 15:17:00,75.0,33.6,29.91,West,277,3.0,8.0,22,0.00,,,0.00,680,WeatherHawk,2013-03-06 22:17:00,
2013-03-06 15:18:00,75.0,33.6,29.91,NW,314,0.0,8.0,22,0.00,,,0.00,678,WeatherHawk,2013-03-06 22:18:00,
2013-03-06 15:22:00,75.7,31.8,29.91,SSE,153,2.0,8.0,20,0.00,,,0.00,665,WeatherHawk,2013-03-06 22:22:00,
2013-03-06 15:23:00,75.6,31.7,29.91,South,173,2.0,8.0,20,0.00,,,0.00,664,WeatherHawk,2013-03-06 22:23:00,
2013-03-06 15:24:00,75.6,31.7,29.91,ESE,109,4.0,8.0,20,0.00,,,0.00,660,WeatherHawk,2013-03-06 22:24:00,
2013-03-06 15:26:00,75.0,32.4,29.91,East,97,4.0,8.0,21,0.00,,,0.00,652,WeatherHawk,2013-03-06 22:26:00,
2013-03-06 15:28:00,74.7,33.3,29.91,ESE,111,3.0,8.0,22,0.00,,,0.00,647,WeatherHawk,2013-03-06 22:28:00,
2013-03-06 15:30:00,75.0,32.4,29.90,SSE,151,3.0,4.0,21,0.00,,,0.00,641,WeatherHawk,2013-03-06 22:30:00,
2013-03-06 15:33:00,75.2,33.7,29.90,SSW,200,4.0,4.0,22,0.00,,,0.00,633,WeatherHawk,2013-03-06 22:33:00,
2013-03-06 15:36:00,75.4,32.7,29.90,South,185,2.0,4.0,21,0.00,,,0.00,625,WeatherHawk,2013-03-06 22:36:00,
2013-03-06 15:38:00,75.6,35.1,29.90,SSW,202,3.0,4.0,23,0.00,,,0.00,619,WeatherHawk,2013-03-06 22:38:00,
2013-03-06 15:41:00,74.8,34.5,29.90,SW,231,7.0,7.0,23,0.00,,,0.00,607,WeatherHawk,2013-03-06 22:41:00,
2013-03-06 15:43:00,75.0,34.7,29.90,SSW,207,3.0,6.0,23,0.00,,,0.00,601,WeatherHawk,2013-03-06 22:43:00,
2013-03-06 15:44:00,75.2,34.8,29.90,South,189,2.0,6.0,23,0.00,,,0.00,598,WeatherHawk,2013-03-06 22:44:00,
2013-03-06 15:48:00,75.7,35.3,29.90,SW,227,9.0,9.0,23,0.00,,,0.00,586,WeatherHawk,2013-03-06 22:48:00,
2013-03-06 15:51:00,75.2,34.8,29.89,SSW,212,5.0,9.0,23,0.00,,,0.00,574,WeatherHawk,2013-03-06 22:51:00,
2013-03-06 15:52:00,75.2,34.8,29.89,SW,230,4.0,9.0,23,0.00,,,0.00,572,WeatherHawk,2013-03-06 22:52:00,
2013-03-06 15:53:00,75.2,33.7,29.89,SW,227,9.0,9.0,22,0.00,,,0.00,568,WeatherHawk,2013-03-06 22:53:00,
2013-03-06 15:57:00,75.0,34.7,29.89,WSW,239,4.0,9.0,23,0.00,,,0.00,556,WeatherHawk,2013-03-06 22:57:00,
2013-03-06 15:58:00,75.2,34.8,29.89,SW,229,6.0,9.0,23,0.00,,,0.00,551,WeatherHawk,2013-03-06 22:58:00,
2013-03-06 16:00:00,75.2,33.7,29.89,SW,224,4.0,9.0,22,0.00,,,0.00,547,WeatherHawk,2013-03-06 23:00:00,
2013-03-06 16:02:00,75.4,33.9,29.89,SSW,199,4.0,9.0,22,0.00,,,0.00,539,WeatherHawk,2013-03-06 23:02:00,
2013-03-06 16:03:00,75.4,33.9,29.89,SSE,164,5.0,9.0,22,0.00,,,0.00,536,WeatherHawk,2013-03-06 23:03:00,
2013-03-06 16:08:00,75.0,33.6,29.89,NNE,24,2.0,9.0,22,0.00,,,0.00,521,WeatherHawk,2013-03-06 23:08:00,
2013-03-06 16:11:00,74.8,33.4,29.89,East,86,3.0,7.0,22,0.00,,,0.00,510,WeatherHawk,2013-03-06 23:11:00,
2013-03-06 16:13:00,74.7,33.3,29.89,East,97,3.0,7.0,22,0.00,,,0.00,495,WeatherHawk,2013-03-06 23:13:00,
2013-03-06 16:14:00,74.7,33.3,29.89,ENE,76,2.0,7.0,22,0.00,,,0.00,498,WeatherHawk,2013-03-06 23:14:00,
2013-03-06 16:16:00,74.8,33.4,29.88,SE,128,2.0,7.0,22,0.00,,,0.00,494,WeatherHawk,2013-03-06 23:16:00,
2013-03-06 16:19:00,75.6,32.9,29.88,SE,141,2.0,7.0,21,0.00,,,0.00,482,WeatherHawk,2013-03-06 23:19:00,
2013-03-06 16:20:00,75.7,34.2,29.88,South,183,4.0,7.0,22,0.00,,,0.00,481,WeatherHawk,2013-03-06 23:20:00,
2013-03-06 16:22:00,76.1,33.3,29.88,West,261,4.0,7.0,21,0.00,,,0.00,473,WeatherHawk,2013-03-06 23:22:00,
2013-03-06 16:23:00,76.1,33.3,29.88,WSW,253,2.0,-999.0,21,0.00,,,0.00,472,WeatherHawk,2013-03-06 23:23:00,
2013-03-06 16:24:00,76.3,32.3,29.88,SW,236,4.0,7.0,20,0.00,,,0.00,464,WeatherHawk,2013-03-06 23:24:00,
2013-03-06 16:27:00,76.6,31.3,29.88,West,261,5.0,7.0,19,0.00,,,0.00,454,WeatherHawk,2013-03-06 23:27:00,
2013-03-06 16:29:00,76.3,32.3,29.88,West,268,4.0,0.0,20,0.00,,,0.00,447,WeatherHawk,2013-03-06 23:29:00,
2013-03-06 16:32:00,76.1,32.1,29.88,WSW,239,3.0,6.0,20,0.00,,,0.00,437,WeatherHawk,2013-03-06 23:32:00,
2013-03-06 16:33:00,76.1,32.1,29.88,WSW,248,3.0,6.0,20,0.00,,,0.00,427,WeatherHawk,2013-03-06 23:33:00,
2013-03-06 16:37:00,76.5,29.8,29.88,NE,43,1.0,6.0,18,0.00,,,0.00,416,WeatherHawk,2013-03-06 23:37:00,
2013-03-06 16:38:00,76.5,29.8,29.88,ENE,65,0.0,6.0,18,0.00,,,0.00,412,WeatherHawk,2013-03-06 23:38:00,
2013-03-06 16:43:00,77.0,32.8,29.88,WSW,241,3.0,5.0,20,0.00,,,0.00,395,WeatherHawk,2013-03-06 23:43:00,
2013-03-06 16:44:00,77.0,32.8,29.88,WSW,255,4.0,5.0,20,0.00,,,0.00,391,WeatherHawk,2013-03-06 23:44:00,
2013-03-06 16:47:00,77.0,31.6,29.88,West,278,3.0,5.0,19,0.00,,,0.00,381,WeatherHawk,2013-03-06 23:47:00,
2013-03-06 16:48:00,76.8,32.7,29.88,West,268,2.0,5.0,20,0.00,,,0.00,375,WeatherHawk,2013-03-06 23:48:00,
2013-03-06 16:50:00,76.6,32.5,29.88,WSW,241,2.0,5.0,20,0.00,,,0.00,367,WeatherHawk,2013-03-06 23:50:00,
2013-03-06 16:53:00,76.6,31.3,29.88,SSE,154,2.0,5.0,19,0.00,,,0.00,356,WeatherHawk,2013-03-06 23:53:00,
2013-03-06 16:54:00,76.6,31.3,29.88,SSE,152,3.0,5.0,19,0.00,,,0.00,353,WeatherHawk,2013-03-06 23:54:00,
2013-03-06 16:55:00,76.5,32.4,29.88,SW,222,3.0,5.0,20,0.00,,,0.00,348,WeatherHawk,2013-03-06 23:55:00,
2013-03-06 16:58:00,76.5,32.4,29.88,West,275,5.0,5.0,20,0.00,,,0.00,337,WeatherHawk,2013-03-06 23:58:00,
2013-03-06 16:59:00,76.3,32.3,29.87,West,274,5.0,6.0,20,0.00,,,0.00,332,WeatherHawk,2013-03-06 23:59:00,
2013-03-06 17:01:00,76.1,32.1,29.88,West,260,4.0,6.0,20,0.00,,,0.00,324,WeatherHawk,2013-03-07 00:01:00,
2013-03-06 17:05:00,75.7,34.2,29.87,WSW,244,3.0,6.0,22,0.00,,,0.00,307,WeatherHawk,2013-03-07 00:05:00,
2013-03-06 17:07:00,75.7,34.2,29.87,West,259,5.0,6.0,22,0.00,,,0.00,301,WeatherHawk,2013-03-07 00:07:00,
2013-03-06 17:10:00,75.7,34.2,29.87,SSW,212,5.0,7.0,22,0.00,,,0.00,286,WeatherHawk,2013-03-07 00:10:00,
2013-03-06 17:12:00,75.7,34.2,29.87,SW,222,5.0,7.0,22,0.00,,,0.00,282,WeatherHawk,2013-03-07 00:12:00,
2013-03-06 17:13:00,75.6,34.0,29.87,SW,217,6.0,7.0,22,0.00,,,0.00,277,WeatherHawk,2013-03-07 00:13:00,
2013-03-06 17:14:00,75.6,35.1,29.87,SW,225,7.0,7.0,23,0.00,,,0.00,274,WeatherHawk,2013-03-07 00:14:00,
2013-03-06 17:17:00,75.2,33.7,29.87,SSW,199,7.0,7.0,22,0.00,,,0.00,260,WeatherHawk,2013-03-07 00:17:00,
2013-03-06 17:18:00,75.2,33.7,29.87,SSW,199,7.0,7.0,22,0.00,,,0.00,260,WeatherHawk,2013-03-07 00:18:00,
2013-03-06 17:19:00,75.2,32.6,29.87,SW,224,6.0,8.0,21,0.00,,,0.00,252,WeatherHawk,2013-03-07 00:19:00,
2013-03-06 17:22:00,75.0,33.6,29.87,SW,222,5.0,8.0,22,0.00,,,0.00,243,WeatherHawk,2013-03-07 00:22:00,
2013-03-06 17:23:00,75.0,33.6,29.87,SW,224,5.0,8.0,22,0.00,,,0.00,241,WeatherHawk,2013-03-07 00:23:00,
2013-03-06 17:26:00,75.0,32.4,29.87,SW,220,4.0,8.0,21,0.00,,,0.00,228,WeatherHawk,2013-03-07 00:26:00,
2013-03-06 17:28:00,75.0,33.6,29.87,SSW,210,5.0,-999.0,22,0.00,,,0.00,222,WeatherHawk,2013-03-07 00:28:00,
2013-03-06 17:30:00,75.0,33.6,29.87,SSW,194,4.0,7.0,22,0.00,,,0.00,213,WeatherHawk,2013-03-07 00:30:00,
2013-03-06 17:33:00,75.2,32.6,29.87,SW,217,4.0,7.0,21,0.00,,,0.00,201,WeatherHawk,2013-03-07 00:33:00,
2013-03-06 17:35:00,75.2,32.6,29.87,SSW,195,5.0,7.0,21,0.00,,,0.00,196,WeatherHawk,2013-03-07 00:35:00,
2013-03-06 17:38:00,75.0,32.4,29.87,South,169,3.0,7.0,21,0.00,,,0.00,183,WeatherHawk,2013-03-07 00:38:00,
2013-03-06 17:40:00,75.0,32.4,29.87,SSW,203,4.0,6.0,21,0.00,,,0.00,174,WeatherHawk,2013-03-07 00:40:00,
2013-03-06 17:42:00,75.0,32.4,29.87,SW,221,5.0,6.0,21,0.00,,,0.00,170,WeatherHawk,2013-03-07 00:42:00,
2013-03-06 17:47:00,75.2,31.4,29.87,WSW,244,5.0,6.0,20,0.00,,,0.00,151,WeatherHawk,2013-03-07 00:47:00,
2013-03-06 17:48:00,75.2,31.4,29.87,WSW,241,5.0,6.0,20,0.00,,,0.00,149,WeatherHawk,2013-03-07 00:48:00,
2013-03-06 17:51:00,75.0,32.4,29.87,WSW,240,4.0,6.0,21,0.00,,,0.00,137,WeatherHawk,2013-03-07 00:51:00,
2013-03-06 17:53:00,75.0,31.2,29.87,SW,231,5.0,6.0,20,0.00,,,0.00,131,WeatherHawk,2013-03-07 00:53:00,
2013-03-06 17:58:00,74.8,32.3,29.86,SW,215,4.0,6.0,21,0.00,,,0.00,113,WeatherHawk,2013-03-07 00:58:00,
2013-03-06 17:59:00,74.7,33.3,29.86,SW,233,5.0,5.0,22,0.00,,,0.00,109,WeatherHawk,2013-03-07 00:59:00,
2013-03-06 18:03:00,74.7,33.3,29.86,SW,229,5.0,5.0,22,0.00,,,0.00,97,WeatherHawk,2013-03-07 01:03:00,
2013-03-06 18:05:00,74.5,33.1,29.86,SW,224,4.0,5.0,22,0.00,,,0.00,91,WeatherHawk,2013-03-07 01:05:00,
2013-03-06 18:07:00,74.3,33.0,29.86,SW,230,5.0,5.0,22,0.00,,,0.00,84,WeatherHawk,2013-03-07 01:07:00,
2013-03-06 18:08:00,74.3,33.0,29.86,SW,222,5.0,-999.0,22,0.00,,,0.00,81,WeatherHawk,2013-03-07 01:08:00,
2013-03-06 18:12:00,74.1,32.8,29.87,SW,230,5.0,6.0,22,0.00,,,0.00,67,WeatherHawk,2013-03-07 01:12:00,
2013-03-06 18:13:00,74.1,32.8,29.87,SW,230,5.0,6.0,22,0.00,,,0.00,67,WeatherHawk,2013-03-07 01:13:00,
2013-03-06 18:15:00,74.1,32.8,29.87,SW,225,4.0,6.0,22,0.00,,,0.00,57,WeatherHawk,2013-03-07 01:15:00,
2013-03-06 18:19:00,73.9,33.8,29.86,SW,226,3.0,6.0,23,0.00,,,0.00,46,WeatherHawk,2013-03-07 01:19:00,
2013-03-06 18:21:00,73.9,33.8,29.86,SW,225,4.0,6.0,23,0.00,,,0.00,41,WeatherHawk,2013-03-07 01:21:00,
2013-03-06 18:23:00,73.8,33.6,29.86,SW,224,3.0,6.0,23,0.00,,,0.00,38,WeatherHawk,2013-03-07 01:23:00,
2013-03-06 18:25:00,73.6,33.5,29.86,SW,227,4.0,6.0,23,0.00,,,0.00,30,WeatherHawk,2013-03-07 01:25:00,
2013-03-06 18:28:00,73.2,34.3,29.86,SW,231,4.0,-999.0,24,0.00,,,0.00,23,WeatherHawk,2013-03-07 01:28:00,
2013-03-06 18:32:00,72.9,33.9,29.86,SW,231,5.0,5.0,24,0.00,,,0.00,13,WeatherHawk,2013-03-07 01:32:00,
2013-03-06 18:33:00,72.9,33.9,29.86,SW,229,4.0,5.0,24,0.00,,,0.00,13,WeatherHawk,2013-03-07 01:33:00,
2013-03-06 18:34:00,72.7,34.8,29.86,SW,228,5.0,5.0,25,0.00,,,0.00,10,WeatherHawk,2013-03-07 01:34:00,
2013-03-06 18:38:00,72.3,35.5,29.86,SW,222,5.0,5.0,26,0.00,,,0.00,5,WeatherHawk,2013-03-07 01:38:00,
2013-03-06 18:41:00,72.1,36.3,29.86,SW,218,4.0,5.0,27,0.00,,,0.00,4,WeatherHawk,2013-03-07 01:41:00,
2013-03-06 18:43:00,72.0,35.2,29.86,SW,217,4.0,5.0,26,0.00,,,0.00,3,WeatherHawk,2013-03-07 01:43:00,
2013-03-06 18:44:00,72.0,36.1,29.86,SW,220,4.0,5.0,27,0.00,,,0.00,4,WeatherHawk,2013-03-07 01:44:00,
2013-03-06 18:47:00,71.6,35.8,29.86,SW,224,4.0,5.0,27,0.00,,,0.00,2,WeatherHawk,2013-03-07 01:47:00,
2013-03-06 18:51:00,71.2,35.5,29.86,SW,216,3.0,5.0,27,0.00,,,0.00,0,WeatherHawk,2013-03-07 01:51:00,
2013-03-06 18:53:00,71.1,35.4,29.86,SW,216,3.0,5.0,27,0.00,,,0.00,1,WeatherHawk,2013-03-07 01:53:00,
2013-03-06 18:55:00,71.1,34.4,29.86,SW,216,4.0,5.0,26,0.00,,,0.00,0,WeatherHawk,2013-03-07 01:55:00,
2013-03-06 18:57:00,71.1,34.4,29.86,SW,216,4.0,5.0,26,0.00,,,0.00,0,WeatherHawk,2013-03-07 01:57:00,
2013-03-06 18:59:00,70.9,35.2,29.87,SW,217,4.0,4.0,27,0.00,,,0.00,0,WeatherHawk,2013-03-07 01:59:00,
2013-03-06 19:01:00,70.9,34.3,29.87,SW,218,4.0,4.0,26,0.00,,,0.00,0,WeatherHawk,2013-03-07 02:01:00,
2013-03-06 19:05:00,70.7,34.1,29.87,SW,220,4.0,4.0,26,0.00,,,0.00,0,WeatherHawk,2013-03-07 02:05:00,
2013-03-06 19:07:00,70.5,34.0,29.87,SW,219,4.0,4.0,26,0.00,,,0.00,0,WeatherHawk,2013-03-07 02:07:00,
2013-03-06 19:08:00,70.5,34.0,29.87,SW,219,4.0,4.0,26,0.00,,,0.00,0,WeatherHawk,2013-03-07 02:08:00,
2013-03-06 19:09:00,70.5,34.0,29.87,SW,219,4.0,5.0,26,0.00,,,0.00,0,WeatherHawk,2013-03-07 02:09:00,
2013-03-06 19:13:00,70.3,33.8,29.86,SW,225,4.0,5.0,26,0.00,,,0.00,0,WeatherHawk,2013-03-07 02:13:00,
2013-03-06 19:15:00,70.3,33.8,29.86,SW,223,4.0,5.0,26,0.00,,,0.00,0,WeatherHawk,2013-03-07 02:15:00,
2013-03-06 19:17:00,70.2,33.7,29.87,SW,217,3.0,5.0,26,0.00,,,0.00,0,WeatherHawk,2013-03-07 02:17:00,
2013-03-06 19:18:00,70.2,33.7,29.87,SW,217,3.0,-999.0,26,0.00,,,0.00,0,WeatherHawk,2013-03-07 02:18:00,
2013-03-06 19:20:00,70.0,34.5,29.87,SW,216,3.0,4.0,27,0.00,,,0.00,0,WeatherHawk,2013-03-07 02:20:00,
2013-03-06 19:23:00,70.0,34.5,29.87,SSW,210,3.0,-999.0,27,0.00,,,0.00,0,WeatherHawk,2013-03-07 02:23:00,
2013-03-06 19:25:00,69.6,35.1,29.87,SSW,199,3.0,4.0,28,0.00,,,0.00,1,WeatherHawk,2013-03-07 02:25:00,
2013-03-06 19:29:00,69.3,35.6,29.87,SSW,193,3.0,4.0,29,0.00,,,0.00,0,WeatherHawk,2013-03-07 02:29:00,
2013-03-06 19:33:00,69.1,35.5,29.87,SSW,203,3.0,4.0,29,0.00,,,0.00,0,WeatherHawk,2013-03-07 02:33:00,
2013-03-06 19:38:00,68.4,34.9,29.87,SSW,201,4.0,4.0,29,0.00,,,0.00,0,WeatherHawk,2013-03-07 02:38:00,
2013-03-06 19:39:00,68.2,35.6,29.87,SSW,205,4.0,4.0,30,0.00,,,0.00,0,WeatherHawk,2013-03-07 02:39:00,
2013-03-06 19:40:00,68.2,35.6,29.87,SSW,205,4.0,4.0,30,0.00,,,0.00,0,WeatherHawk,2013-03-07 02:40:00,
2013-03-06 19:43:00,68.0,35.4,29.87,SSW,207,4.0,4.0,30,0.00,,,0.00,0,WeatherHawk,2013-03-07 02:43:00,
2013-03-06 19:44:00,68.0,35.4,29.87,SSW,206,4.0,4.0,30,0.00,,,0.00,0,WeatherHawk,2013-03-07 02:44:00,
2013-03-06 19:46:00,68.0,35.4,29.87,SSW,204,5.0,5.0,30,0.00,,,0.00,0,WeatherHawk,2013-03-07 02:46:00,
2013-03-06 19:48:00,68.0,35.4,29.87,SSW,208,5.0,-999.0,30,0.00,,,0.00,1,WeatherHawk,2013-03-07 02:48:00,
2013-03-06 19:51:00,68.2,35.6,29.87,SSW,204,5.0,5.0,30,0.00,,,0.00,0,WeatherHawk,2013-03-07 02:51:00,
2013-03-06 19:53:00,68.2,35.6,29.87,SSW,207,5.0,5.0,30,0.00,,,0.00,0,WeatherHawk,2013-03-07 02:53:00,
2013-03-06 19:55:00,68.0,36.2,29.87,SSW,208,6.0,6.0,31,0.00,,,0.00,0,WeatherHawk,2013-03-07 02:55:00,
2013-03-06 19:58:00,68.0,37.0,29.87,SSW,210,5.0,-999.0,32,0.00,,,0.00,0,WeatherHawk,2013-03-07 02:58:00,
2013-03-06 20:00:00,67.6,36.7,29.87,SW,217,4.0,6.0,32,0.00,,,0.00,0,WeatherHawk,2013-03-07 03:00:00,
2013-03-06 20:03:00,67.5,36.6,29.87,SW,228,5.0,6.0,32,0.00,,,0.00,0,WeatherHawk,2013-03-07 03:03:00,
2013-03-06 20:04:00,67.5,36.6,29.87,SW,226,5.0,6.0,32,0.00,,,0.00,0,WeatherHawk,2013-03-07 03:04:00,
2013-03-06 20:06:00,67.6,36.7,29.87,SW,227,5.0,6.0,32,0.00,,,0.00,0,WeatherHawk,2013-03-07 03:06:00,
2013-03-06 20:07:00,67.6,37.5,29.87,SW,222,5.0,6.0,33,0.00,,,0.00,1,WeatherHawk,2013-03-07 03:07:00,
2013-03-06 20:08:00,67.6,37.5,29.87,SW,217,5.0,6.0,33,0.00,,,0.00,0,WeatherHawk,2013-03-07 03:08:00,
2013-03-06 20:11:00,67.3,38.7,29.87,SSW,206,5.0,6.0,35,0.00,,,0.00,0,WeatherHawk,2013-03-07 03:11:00,
2013-03-06 20:12:00,67.1,38.5,29.87,SSW,208,4.0,6.0,35,0.00,,,0.00,0,WeatherHawk,2013-03-07 03:12:00,
2013-03-06 20:13:00,67.1,38.5,29.87,SSW,209,4.0,6.0,35,0.00,,,0.00,0,WeatherHawk,2013-03-07 03:13:00,
2013-03-06 20:17:00,66.6,38.1,29.87,SSW,206,4.0,6.0,35,0.00,,,0.00,0,WeatherHawk,2013-03-07 03:17:00,
2013-03-06 20:18:00,66.6,38.1,29.87,SSW,207,3.0,0.0,35,0.00,,,0.00,0,WeatherHawk,2013-03-07 03:18:00,
2013-03-06 20:19:00,66.6,38.1,29.87,SSW,210,4.0,5.0,35,0.00,,,0.00,0,WeatherHawk,2013-03-07 03:19:00,
2013-03-06 20:23:00,66.4,37.2,29.87,SW,220,4.0,5.0,34,0.00,,,0.00,0,WeatherHawk,2013-03-07 03:23:00,
2013-03-06 20:24:00,66.6,37.3,29.87,SW,219,4.0,5.0,34,0.00,,,0.00,0,WeatherHawk,2013-03-07 03:24:00,
2013-03-06 20:25:00,66.6,37.3,29.87,SW,219,5.0,5.0,34,0.00,,,0.00,0,WeatherHawk,2013-03-07 03:25:00,
2013-03-06 20:28:00,66.6,37.3,29.88,SW,220,5.0,-999.0,34,0.00,,,0.00,0,WeatherHawk,2013-03-07 03:28:00,
2013-03-06 20:29:00,66.6,37.3,29.88,SW,219,4.0,5.0,34,0.00,,,0.00,0,WeatherHawk,2013-03-07 03:29:00,
2013-03-06 20:33:00,66.6,37.3,29.88,SSW,212,5.0,5.0,34,0.00,,,0.00,0,WeatherHawk,2013-03-07 03:33:00,
2013-03-06 20:35:00,66.6,37.3,29.88,SW,216,5.0,5.0,34,0.00,,,0.00,0,WeatherHawk,2013-03-07 03:35:00,
2013-03-06 20:37:00,66.4,37.2,29.88,SW,220,5.0,5.0,34,0.00,,,0.00,0,WeatherHawk,2013-03-07 03:37:00,
2013-03-06 20:38:00,66.4,37.2,29.88,SW,220,5.0,-999.0,34,0.00,,,0.00,0,WeatherHawk,2013-03-07 03:38:00,
2013-03-06 20:42:00,66.0,37.6,29.88,WSW,244,5.0,5.0,35,0.00,,,0.00,0,WeatherHawk,2013-03-07 03:42:00,
2013-03-06 20:43:00,66.0,37.6,29.88,WSW,244,5.0,5.0,35,0.00,,,0.00,0,WeatherHawk,2013-03-07 03:43:00,
2013-03-06 20:48:00,65.7,38.7,29.88,WSW,238,5.0,5.0,37,0.00,,,0.00,0,WeatherHawk,2013-03-07 03:48:00,
2013-03-06 20:49:00,65.3,39.0,29.88,WSW,241,5.0,7.0,38,0.00,,,0.00,0,WeatherHawk,2013-03-07 03:49:00,
2013-03-06 20:53:00,64.9,39.4,29.88,WSW,241,6.0,7.0,39,0.00,,,0.00,0,WeatherHawk,2013-03-07 03:53:00,
2013-03-06 20:57:00,64.9,39.4,29.88,WSW,252,9.0,9.0,39,0.00,,,0.00,0,WeatherHawk,2013-03-07 03:57:00,
2013-03-06 20:58:00,64.9,39.4,29.88,WSW,252,9.0,9.0,39,0.00,,,0.00,0,WeatherHawk,2013-03-07 03:58:00,
2013-03-06 21:03:00,64.9,39.4,29.89,WSW,250,8.0,12.0,39,0.00,,,0.00,0,WeatherHawk,2013-03-07 04:03:00,
2013-03-06 21:04:00,64.8,39.2,29.89,WSW,249,7.0,12.0,39,0.00,,,0.00,0,WeatherHawk,2013-03-07 04:04:00,
2013-03-06 21:08:00,64.6,39.7,29.89,WSW,258,8.0,-999.0,40,0.00,,,0.00,0,WeatherHawk,2013-03-07 04:08:00,
2013-03-06 21:10:00,64.4,40.2,29.89,WSW,257,8.0,11.0,41,0.00,,,0.00,0,WeatherHawk,2013-03-07 04:10:00,
2013-03-06 21:12:00,64.0,41.1,29.89,West,264,8.0,11.0,43,0.00,,,0.00,0,WeatherHawk,2013-03-07 04:12:00,
2013-03-06 21:13:00,64.0,41.1,29.89,West,264,8.0,-999.0,43,0.00,,,0.00,0,WeatherHawk,2013-03-07 04:13:00,
2013-03-06 21:18:00,63.0,41.9,29.89,West,268,6.0,11.0,46,0.00,,,0.00,1,WeatherHawk,2013-03-07 04:18:00,
2013-03-06 21:21:00,62.4,41.9,29.89,West,279,6.0,11.0,47,0.00,,,0.00,0,WeatherHawk,2013-03-07 04:21:00,
2013-03-06 21:23:00,62.4,41.9,29.89,West,278,6.0,11.0,47,0.00,,,0.00,0,WeatherHawk,2013-03-07 04:23:00,
2013-03-06 21:24:00,62.2,41.8,29.89,WNW,282,7.0,11.0,47,0.00,,,0.00,0,WeatherHawk,2013-03-07 04:24:00,
2013-03-06 21:28:00,61.9,42.0,29.89,West,272,6.0,11.0,48,0.00,,,0.00,0,WeatherHawk,2013-03-07 04:28:00,
2013-03-06 21:33:00,61.7,41.8,29.89,West,269,6.0,9.0,48,0.00,,,0.00,0,WeatherHawk,2013-03-07 04:33:00,
2013-03-06 21:34:00,61.7,41.8,29.89,West,270,6.0,9.0,48,0.00,,,0.00,0,WeatherHawk,2013-03-07 04:34:00,
2013-03-06 21:36:00,61.7,41.3,29.89,West,271,6.0,9.0,47,0.00,,,0.00,0,WeatherHawk,2013-03-07 04:36:00,
2013-03-06 21:39:00,61.7,41.3,29.89,West,280,7.0,7.0,47,0.00,,,0.00,0,WeatherHawk,2013-03-07 04:39:00,
2013-03-06 21:41:00,61.9,41.4,29.89,WNW,283,6.0,7.0,47,0.00,,,0.00,0,WeatherHawk,2013-03-07 04:41:00,
2013-03-06 21:42:00,61.9,41.4,29.89,WNW,282,5.0,7.0,47,0.00,,,0.00,0,WeatherHawk,2013-03-07 04:42:00,
2013-03-06 21:43:00,61.7,41.3,29.90,WNW,286,5.0,-999.0,47,0.00,,,0.00,0,WeatherHawk,2013-03-07 04:43:00,
2013-03-06 21:47:00,61.5,41.1,29.90,West,280,5.0,7.0,47,0.00,,,0.00,0,WeatherHawk,2013-03-07 04:47:00,
2013-03-06 21:48:00,61.5,41.1,29.90,West,279,5.0,-999.0,47,0.00,,,0.00,0,WeatherHawk,2013-03-07 04:48:00,
2013-03-06 21:50:00,61.3,40.9,29.90,West,267,5.0,7.0,47,0.00,,,0.00,0,WeatherHawk,2013-03-07 04:50:00,
2013-03-06 21:53:00,61.3,40.9,29.90,West,270,4.0,7.0,47,0.00,,,0.00,1,WeatherHawk,2013-03-07 04:53:00,
2013-03-06 21:55:00,61.5,40.5,29.90,West,267,5.0,7.0,46,0.00,,,0.00,0,WeatherHawk,2013-03-07 04:55:00,
2013-03-06 21:56:00,61.5,40.0,29.90,West,273,7.0,7.0,45,0.00,,,0.00,0,WeatherHawk,2013-03-07 04:56:00,
2013-03-06 21:59:00,61.7,40.1,29.90,West,270,6.0,7.0,45,0.00,,,0.00,0,WeatherHawk,2013-03-07 04:59:00,
2013-03-06 22:00:00,61.7,40.1,29.90,West,272,6.0,7.0,45,0.00,,,0.00,0,WeatherHawk,2013-03-07 05:00:00,
2013-03-06 22:01:00,61.7,40.1,29.90,West,273,7.0,7.0,45,0.00,,,0.00,0,WeatherHawk,2013-03-07 05:01:00,
2013-03-06 22:02:00,61.7,40.1,29.90,West,276,8.0,8.0,45,0.00,,,0.00,0,WeatherHawk,2013-03-07 05:02:00,
2013-03-06 22:07:00,61.3,40.4,29.90,West,276,6.0,7.0,46,0.00,,,0.00,0,WeatherHawk,2013-03-07 05:07:00,
2013-03-06 22:08:00,61.3,40.4,29.90,West,276,6.0,7.0,46,0.00,,,0.00,0,WeatherHawk,2013-03-07 05:08:00,
2013-03-06 22:13:00,61.2,40.2,29.90,WNW,282,5.0,8.0,46,0.00,,,0.00,0,WeatherHawk,2013-03-07 05:13:00,
2013-03-06 22:16:00,60.8,40.4,29.90,West,281,6.0,8.0,47,0.00,,,0.00,0,WeatherHawk,2013-03-07 05:16:00,
2013-03-06 22:18:00,60.8,40.4,29.90,West,277,6.0,8.0,47,0.00,,,0.00,0,WeatherHawk,2013-03-07 05:18:00,
2013-03-06 22:20:00,60.4,40.7,29.90,WNW,284,5.0,7.0,48,0.00,,,0.00,1,WeatherHawk,2013-03-07 05:20:00,
2013-03-06 22:22:00,60.4,40.7,29.90,West,278,5.0,7.0,48,0.00,,,0.00,0,WeatherHawk,2013-03-07 05:22:00,
2013-03-06 22:23:00,60.4,40.7,29.90,West,278,5.0,-999.0,48,0.00,,,0.00,0,WeatherHawk,2013-03-07 05:23:00,
2013-03-06 22:26:00,60.1,40.3,29.90,West,280,6.0,7.0,48,0.00,,,0.00,0,WeatherHawk,2013-03-07 05:26:00,
2013-03-06 22:28:00,60.1,40.3,29.90,West,280,6.0,-999.0,48,0.00,,,0.00,0,WeatherHawk,2013-03-07 05:28:00,
2013-03-06 22:32:00,60.1,40.3,29.90,West,277,6.0,7.0,48,0.00,,,0.00,0,WeatherHawk,2013-03-07 05:32:00,
2013-03-06 22:33:00,60.1,40.3,29.90,West,277,6.0,-999.0,48,0.00,,,0.00,0,WeatherHawk,2013-03-07 05:33:00,
2013-03-06 22:35:00,60.3,40.5,29.90,WNW,283,9.0,9.0,48,0.00,,,0.00,0,WeatherHawk,2013-03-07 05:35:00,
2013-03-06 22:38:00,60.1,40.9,29.90,WNW,286,7.0,7.0,49,0.00,,,0.00,0,WeatherHawk,2013-03-07 05:38:00,
2013-03-06 22:41:00,60.1,40.9,29.90,WNW,290,9.0,10.0,49,0.00,,,0.00,0,WeatherHawk,2013-03-07 05:41:00,
2013-03-06 22:42:00,60.1,40.9,29.90,WNW,288,9.0,10.0,49,0.00,,,0.00,0,WeatherHawk,2013-03-07 05:42:00,
2013-03-06 22:43:00,60.1,40.9,29.90,WNW,288,9.0,-999.0,49,0.00,,,0.00,0,WeatherHawk,2013-03-07 05:43:00,
2013-03-06 22:47:00,60.3,40.5,29.90,WNW,288,9.0,10.0,48,0.00,,,0.00,0,WeatherHawk,2013-03-07 05:47:00,
2013-03-06 22:48:00,60.3,40.5,29.90,WNW,288,9.0,10.0,48,0.00,,,0.00,0,WeatherHawk,2013-03-07 05:48:00,
2013-03-06 22:49:00,60.3,41.0,29.90,WNW,288,10.0,12.0,49,0.00,,,0.00,0,WeatherHawk,2013-03-07 05:49:00,
2013-03-06 22:50:00,60.3,41.0,29.91,WNW,286,9.0,12.0,49,0.00,,,0.00,0,WeatherHawk,2013-03-07 05:50:00,
2013-03-06 22:53:00,60.3,41.0,29.91,WNW,285,9.0,12.0,49,0.00,,,0.00,0,WeatherHawk,2013-03-07 05:53:00,
2013-03-06 22:55:00,60.1,40.9,29.91,WNW,282,10.0,12.0,49,0.00,,,0.00,0,WeatherHawk,2013-03-07 05:55:00,
2013-03-06 22:58:00,59.9,41.2,29.91,WNW,285,8.0,12.0,50,0.00,,,0.00,0,WeatherHawk,2013-03-07 05:58:00,
2013-03-06 23:01:00,59.5,40.9,29.91,WNW,284,9.0,12.0,50,0.00,,,0.00,0,WeatherHawk,2013-03-07 06:01:00,
2013-03-06 23:02:00,59.5,40.9,29.91,WNW,288,8.0,12.0,50,0.00,,,0.00,0,WeatherHawk,2013-03-07 06:02:00,
2013-03-06 23:07:00,59.2,41.1,29.90,WNW,284,8.0,12.0,51,0.00,,,0.00,0,WeatherHawk,2013-03-07 06:07:00,
2013-03-06 23:08:00,59.2,41.1,29.90,WNW,284,8.0,12.0,51,0.00,,,0.00,0,WeatherHawk,2013-03-07 06:08:00,
2013-03-06 23:13:00,59.0,41.4,29.91,WNW,298,7.0,10.0,52,0.00,,,0.00,0,WeatherHawk,2013-03-07 06:13:00,
2013-03-06 23:14:00,58.8,41.2,29.91,WNW,295,7.0,10.0,52,0.00,,,0.00,0,WeatherHawk,2013-03-07 06:14:00,
2013-03-06 23:18:00,58.6,41.1,29.91,WNW,296,7.0,10.0,52,0.00,,,0.00,0,WeatherHawk,2013-03-07 06:18:00,
2013-03-06 23:19:00,58.6,41.1,29.91,WNW,300,8.0,9.0,52,0.00,,,0.00,0,WeatherHawk,2013-03-07 06:19:00,
2013-03-06 23:20:00,58.5,41.4,29.91,WNW,296,6.0,9.0,53,0.00,,,0.00,1,WeatherHawk,2013-03-07 06:20:00,
2013-03-06 23:23:00,58.5,41.4,29.90,WNW,299,6.0,9.0,53,0.00,,,0.00,0,WeatherHawk,2013-03-07 06:23:00,
2013-03-06 23:28:00,58.1,41.5,29.90,WNW,297,5.0,9.0,54,0.00,,,0.00,0,WeatherHawk,2013-03-07 06:28:00,
2013-03-06 23:33:00,57.9,41.4,29.90,WNW,294,5.0,-999.0,54,0.00,,,0.00,1,WeatherHawk,2013-03-07 06:33:00,
2013-03-06 23:34:00,57.9,41.4,29.90,WNW,289,4.0,8.0,54,0.00,,,0.00,0,WeatherHawk,2013-03-07 06:34:00,
2013-03-06 23:35:00,58.1,41.5,29.90,West,279,4.0,8.0,54,0.00,,,0.00,0,WeatherHawk,2013-03-07 06:35:00,
2013-03-06 23:36:00,58.1,41.5,29.90,West,281,4.0,8.0,54,0.00,,,0.00,1,WeatherHawk,2013-03-07 06:36:00,
2013-03-06 23:40:00,57.9,41.4,29.90,WNW,282,3.0,7.0,54,0.00,,,0.00,0,WeatherHawk,2013-03-07 06:40:00,
2013-03-06 23:42:00,57.9,41.4,29.90,WNW,293,5.0,7.0,54,0.00,,,0.00,0,WeatherHawk,2013-03-07 06:42:00,
2013-03-06 23:43:00,57.9,41.4,29.90,WNW,293,5.0,7.0,54,0.00,,,0.00,0,WeatherHawk,2013-03-07 06:43:00,
2013-03-06 23:46:00,58.5,40.9,29.90,WNW,294,6.0,7.0,52,0.00,,,0.00,0,WeatherHawk,2013-03-07 06:46:00,
2013-03-06 23:47:00,58.5,40.9,29.90,WNW,300,6.0,7.0,52,0.00,,,0.00,0,WeatherHawk,2013-03-07 06:47:00,
2013-03-06 23:48:00,58.5,40.9,29.90,WNW,300,6.0,7.0,52,0.00,,,0.00,0,WeatherHawk,2013-03-07 06:48:00,
2013-03-06 23:52:00,58.6,41.1,29.90,NW,311,6.0,7.0,52,0.00,,,0.00,0,WeatherHawk,2013-03-07 06:52:00,
2013-03-06 23:53:00,58.6,41.1,29.90,NW,311,6.0,7.0,52,0.00,,,0.00,0,WeatherHawk,2013-03-07 06:53:00,
2013-03-06 23:58:00,59.0,40.4,29.90,WNW,302,8.0,8.0,50,0.00,,,0.00,0,WeatherHawk,2013-03-07 06:58:00,